Wetterdaten: Sonntag, 10.02.2019
Datum Zeit Temp. Aussen Temp. o. S. +5cm Feuchte Auss Luftdruck Regen Sonnenschein Regendauer Solar Windben Empfang
10.02.2019 00:00 8,6 C 7,8 C 7,2 C 82 % 1004,9 hPa 0,0 l/m 0 min 0 min 0 W/m 12,9 km/h (3 Bft) 97,87 %
10.02.2019 00:02 8,6 C 7,8 C 7,2 C 82 % 1004,9 hPa 0,0 l/m 0 min 0 min 0 W/m 16,1 km/h (3 Bft) 96,88 %
10.02.2019 00:04 8,6 C 7,8 C 7,2 C 82 % 1004,9 hPa 0,0 l/m 0 min 0 min 0 W/m 29,0 km/h (5 Bft) 97,83 %
10.02.2019 00:07 8,6 C 7,8 C 7,2 C 82 % 1004,8 hPa 0,0 l/m 0 min 0 min 0 W/m 22,5 km/h (4 Bft) 97,56 %
10.02.2019 00:08 8,6 C 7,8 C 7,2 C 82 % 1004,8 hPa 0,0 l/m 0 min 0 min 0 W/m 19,3 km/h (3 Bft) 100,00 %
10.02.2019 00:10 8,6 C 7,8 C 7,2 C 82 % 1004,8 hPa 0,0 l/m 0 min 0 min 0 W/m 12,9 km/h (3 Bft) 97,87 %
10.02.2019 00:12 8,6 C 7,8 C 7,2 C 82 % 1004,8 hPa 0,0 l/m 0 min 0 min 0 W/m 12,9 km/h (3 Bft) 95,74 %
10.02.2019 00:14 8,6 C 7,8 C 7,2 C 82 % 1004,8 hPa 0,0 l/m 0 min 0 min 0 W/m 22,5 km/h (4 Bft) 95,74 %
10.02.2019 00:16 8,6 C 7,8 C 7,2 C 82 % 1004,7 hPa 0,0 l/m 0 min 0 min 0 W/m 22,5 km/h (4 Bft) 95,65 %
10.02.2019 00:18 8,6 C 7,8 C 7,2 C 82 % 1004,7 hPa 0,0 l/m 0 min 0 min 0 W/m 6,4 km/h (2 Bft) 97,87 %
10.02.2019 00:20 8,6 C 7,8 C 7,2 C 82 % 1004,7 hPa 0,0 l/m 0 min 0 min 0 W/m 25,7 km/h (4 Bft) 97,87 %
10.02.2019 00:22 8,6 C 7,8 C 7,2 C 82 % 1004,6 hPa 0,0 l/m 0 min 0 min 0 W/m 22,5 km/h (4 Bft) 95,74 %
10.02.2019 00:24 8,6 C 7,8 C 7,2 C 82 % 1004,7 hPa 0,0 l/m 0 min 0 min 0 W/m 16,1 km/h (3 Bft) 97,87 %
10.02.2019 00:26 8,6 C 7,8 C 7,2 C 82 % 1004,5 hPa 0,0 l/m 0 min 0 min 0 W/m 16,1 km/h (3 Bft) 95,65 %
10.02.2019 00:28 8,6 C 7,8 C 7,2 C 82 % 1004,6 hPa 0,0 l/m 0 min 0 min 0 W/m 19,3 km/h (3 Bft) 97,87 %
10.02.2019 00:30 8,6 C 7,8 C 7,2 C 82 % 1004,5 hPa 0,0 l/m 0 min 0 min 0 W/m 35,4 km/h (5 Bft) 97,87 %
10.02.2019 00:32 8,6 C 7,8 C 7,2 C 82 % 1004,5 hPa 0,0 l/m 0 min 0 min 0 W/m 29,0 km/h (5 Bft) 100,00 %
10.02.2019 00:34 8,6 C 7,8 C 7,2 C 82 % 1004,5 hPa 0,0 l/m 0 min 0 min 0 W/m 16,1 km/h (3 Bft) 100,00 %
10.02.2019 00:36 8,6 C 7,8 C 7,2 C 82 % 1004,5 hPa 0,0 l/m 0 min 0 min 0 W/m 16,1 km/h (3 Bft) 100,00 %
10.02.2019 00:38 8,6 C 7,8 C 7,2 C 82 % 1004,4 hPa 0,0 l/m 0 min 0 min 0 W/m 16,1 km/h (3 Bft) 100,00 %
10.02.2019 00:40 8,6 C 7,8 C 7,2 C 82 % 1004,3 hPa 0,0 l/m 0 min 0 min 0 W/m 12,9 km/h (3 Bft) 97,87 %
10.02.2019 00:42 8,6 C 7,8 C 7,2 C 83 % 1004,4 hPa 0,0 l/m 0 min 0 min 0 W/m 22,5 km/h (4 Bft) 100,00 %
10.02.2019 00:44 8,6 C 7,8 C 7,2 C 83 % 1004,3 hPa 0,0 l/m 0 min 0 min 0 W/m 25,7 km/h (4 Bft) 100,00 %
10.02.2019 00:46 8,6 C 7,8 C 7,2 C 83 % 1004,3 hPa 0,0 l/m 0 min 0 min 0 W/m 25,7 km/h (4 Bft) 100,00 %
10.02.2019 00:48 8,6 C 7,8 C 7,2 C 83 % 1004,2 hPa 0,0 l/m 0 min 0 min 0 W/m 29,0 km/h (5 Bft) 97,87 %
10.02.2019 00:50 8,6 C 7,8 C 7,2 C 83 % 1004,1 hPa 0,0 l/m 0 min 0 min 0 W/m 16,1 km/h (3 Bft) 100,00 %
10.02.2019 00:52 8,6 C 7,8 C 7,2 C 83 % 1004,0 hPa 0,0 l/m 0 min 0 min 0 W/m 12,9 km/h (3 Bft) 100,00 %
10.02.2019 00:54 8,6 C 7,8 C 7,2 C 83 % 1004,0 hPa 0,0 l/m 0 min 0 min 0 W/m 29,0 km/h (5 Bft) 100,00 %
10.02.2019 00:56 8,6 C 8,3 C 7,2 C 83 % 1004,0 hPa 0,0 l/m 0 min 0 min 0 W/m 19,3 km/h (3 Bft) 97,87 %
10.02.2019 00:58 8,6 C 8,3 C 7,2 C 83 % 1003,9 hPa 0,0 l/m 0 min 0 min 0 W/m 22,5 km/h (4 Bft) 95,74 %
10.02.2019 01:00 8,6 C 8,3 C 7,2 C 83 % 1003,8 hPa 0,0 l/m 0 min 0 min 0 W/m 16,1 km/h (3 Bft) 97,87 %
10.02.2019 01:02 8,6 C 7,8 C 7,2 C 83 % 1004,0 hPa 0,0 l/m 0 min 0 min 0 W/m 9,7 km/h (2 Bft) 95,65 %
10.02.2019 01:04 8,6 C 7,8 C 7,2 C 83 % 1003,9 hPa 0,0 l/m 0 min 0 min 0 W/m 12,9 km/h (3 Bft) 97,87 %
10.02.2019 01:06 8,6 C 7,8 C 7,2 C 83 % 1003,9 hPa 0,0 l/m 0 min 0 min 0 W/m 19,3 km/h (3 Bft) 96,61 %
10.02.2019 01:08 8,6 C 7,8 C 7,2 C 83 % 1003,7 hPa 0,0 l/m 0 min 0 min 0 W/m 19,3 km/h (3 Bft) 97,14 %
10.02.2019 01:10 8,6 C 7,8 C 7,2 C 83 % 1003,7 hPa 0,0 l/m 0 min 0 min 0 W/m 22,5 km/h (4 Bft) 97,87 %
10.02.2019 01:12 8,6 C 7,8 C 7,2 C 83 % 1003,7 hPa 0,0 l/m 0 min 0 min 0 W/m 19,3 km/h (3 Bft) 95,74 %
10.02.2019 01:14 8,6 C 7,8 C 7,2 C 83 % 1003,6 hPa 0,0 l/m 0 min 0 min 0 W/m 25,7 km/h (4 Bft) 97,83 %
10.02.2019 01:16 8,6 C 7,8 C 7,2 C 83 % 1003,6 hPa 0,0 l/m 0 min 0 min 0 W/m 19,3 km/h (3 Bft) 97,87 %
10.02.2019 01:18 8,6 C 7,8 C 7,2 C 83 % 1003,6 hPa 0,0 l/m 0 min 0 min 0 W/m 19,3 km/h (3 Bft) 97,87 %
10.02.2019 01:20 8,6 C 7,8 C 7,2 C 83 % 1003,5 hPa 0,0 l/m 0 min 0 min 0 W/m 16,1 km/h (3 Bft) 97,87 %
10.02.2019 01:22 8,6 C 7,8 C 7,2 C 83 % 1003,4 hPa 0,0 l/m 0 min 0 min 0 W/m 12,9 km/h (3 Bft) 95,74 %
10.02.2019 01:24 8,6 C 7,8 C 7,2 C 83 % 1003,4 hPa 0,0 l/m 0 min 0 min 0 W/m 19,3 km/h (3 Bft) 97,87 %
10.02.2019 01:26 8,6 C 7,8 C 7,2 C 83 % 1003,4 hPa 0,0 l/m 0 min 0 min 0 W/m 19,3 km/h (3 Bft) 97,83 %
10.02.2019 01:28 8,6 C 7,8 C 7,2 C 83 % 1003,3 hPa 0,0 l/m 0 min 0 min 0 W/m 19,3 km/h (3 Bft) 97,87 %
10.02.2019 01:30 8,6 C 7,8 C 7,2 C 83 % 1003,3 hPa 0,0 l/m 0 min 0 min 0 W/m 12,9 km/h (3 Bft) 97,87 %
10.02.2019 01:32 8,6 C 7,8 C 7,2 C 83 % 1003,3 hPa 0,0 l/m 0 min 0 min 0 W/m 6,4 km/h (2 Bft) 93,62 %
10.02.2019 01:34 8,6 C 7,8 C 7,2 C 83 % 1003,2 hPa 0,0 l/m 0 min 0 min 0 W/m 9,7 km/h (2 Bft) 97,87 %
10.02.2019 01:36 8,6 C 7,8 C 7,2 C 83 % 1003,2 hPa 0,0 l/m 0 min 0 min 0 W/m 16,1 km/h (3 Bft) 98,28 %
10.02.2019 01:38 8,6 C 7,8 C 7,2 C 83 % 1003,2 hPa 0,0 l/m 0 min 0 min 0 W/m 9,7 km/h (2 Bft) 94,29 %
10.02.2019 01:40 8,6 C 7,8 C 7,2 C 83 % 1003,1 hPa 0,0 l/m 0 min 0 min 0 W/m 25,7 km/h (4 Bft) 95,74 %
10.02.2019 01:42 8,6 C 7,8 C 7,2 C 83 % 1003,1 hPa 0,0 l/m 0 min 0 min 0 W/m 12,9 km/h (3 Bft) 93,62 %
10.02.2019 01:44 8,6 C 7,8 C 7,2 C 84 % 1002,9 hPa 0,0 l/m 0 min 0 min 0 W/m 9,7 km/h (2 Bft) 95,74 %
10.02.2019 01:46 8,6 C 7,8 C 7,2 C 84 % 1002,9 hPa 0,0 l/m 0 min 2 min 0 W/m 9,7 km/h (2 Bft) 95,74 %
10.02.2019 01:48 8,6 C 7,8 C 7,2 C 84 % 1002,8 hPa 0,0 l/m 0 min 0 min 0 W/m 16,1 km/h (3 Bft) 95,65 %
10.02.2019 01:50 8,6 C 7,8 C 7,2 C 84 % 1002,8 hPa 0,0 l/m 0 min 0 min 0 W/m 19,3 km/h (3 Bft) 93,62 %
10.02.2019 01:52 8,6 C 7,8 C 7,2 C 84 % 1002,7 hPa 0,0 l/m 0 min 0 min 0 W/m 16,1 km/h (3 Bft) 95,74 %
10.02.2019 01:54 8,5 C 7,8 C 7,2 C 84 % 1002,7 hPa 0,0 l/m 0 min 0 min 0 W/m 22,5 km/h (4 Bft) 97,87 %
10.02.2019 01:56 8,6 C 7,8 C 7,2 C 84 % 1002,6 hPa 0,0 l/m 0 min 0 min 0 W/m 19,3 km/h (3 Bft) 97,87 %
10.02.2019 01:58 8,6 C 7,8 C 7,2 C 84 % 1002,6 hPa 0,0 l/m 0 min 0 min 0 W/m 9,7 km/h (2 Bft) 97,87 %
10.02.2019 02:00 8,6 C 7,8 C 7,2 C 84 % 1002,5 hPa 0,0 l/m 0 min 0 min 0 W/m 12,9 km/h (3 Bft) 97,87 %
10.02.2019 02:02 8,6 C 7,8 C 7,2 C 84 % 1002,4 hPa 0,0 l/m 0 min 0 min 0 W/m 9,7 km/h (2 Bft) 95,65 %
10.02.2019 02:04 8,6 C 7,8 C 7,2 C 84 % 1002,3 hPa 0,0 l/m 0 min 0 min 0 W/m 19,3 km/h (3 Bft) 97,87 %
10.02.2019 02:06 8,6 C 7,8 C 7,2 C 84 % 1002,2 hPa 0,0 l/m 0 min 0 min 0 W/m 19,3 km/h (3 Bft) 96,61 %
10.02.2019 02:08 8,5 C 7,8 C 7,2 C 84 % 1002,2 hPa 0,0 l/m 0 min 0 min 0 W/m 12,9 km/h (3 Bft) 97,14 %
10.02.2019 02:10 8,6 C 7,8 C 7,2 C 84 % 1002,2 hPa 0,0 l/m 0 min 2 min 0 W/m 9,7 km/h (2 Bft) 93,62 %
10.02.2019 02:12 8,5 C 7,8 C 7,2 C 84 % 1002,1 hPa 0,0 l/m 0 min 2 min 0 W/m 22,5 km/h (4 Bft) 95,65 %
10.02.2019 02:14 8,5 C 7,8 C 6,7 C 84 % 1002,2 hPa 0,0 l/m 0 min 2 min 0 W/m 12,9 km/h (3 Bft) 97,87 %
10.02.2019 02:16 8,5 C 7,2 C 6,7 C 84 % 1002,1 hPa 0,0 l/m 0 min 0 min 0 W/m 16,1 km/h (3 Bft) 97,87 %
10.02.2019 02:18 8,5 C 7,2 C 6,7 C 84 % 1002,0 hPa 0,0 l/m 0 min 2 min 0 W/m 19,3 km/h (3 Bft) 97,87 %
10.02.2019 02:20 8,5 C 7,2 C 6,7 C 84 % 1002,0 hPa 0,0 l/m 0 min 0 min 0 W/m 9,7 km/h (2 Bft) 97,87 %
10.02.2019 02:22 8,5 C 7,2 C 6,7 C 84 % 1001,9 hPa 0,0 l/m 0 min 2 min 0 W/m 6,4 km/h (2 Bft) 91,49 %
10.02.2019 02:24 8,5 C 7,2 C 6,7 C 84 % 1002,0 hPa 0,0 l/m 0 min 2 min 0 W/m 6,4 km/h (2 Bft) 97,83 %
10.02.2019 02:26 8,5 C 7,2 C 6,7 C 84 % 1001,9 hPa 0,0 l/m 0 min 2 min 0 W/m 19,3 km/h (3 Bft) 100,00 %
10.02.2019 02:28 8,5 C 7,2 C 6,7 C 84 % 1001,9 hPa 0,0 l/m 0 min 2 min 0 W/m 12,9 km/h (3 Bft) 100,00 %
10.02.2019 02:30 8,4 C 7,2 C 6,7 C 85 % 1001,9 hPa 0,0 l/m 0 min 2 min 0 W/m 19,3 km/h (3 Bft) 97,87 %
10.02.2019 02:32 8,4 C 7,2 C 6,7 C 85 % 1001,8 hPa 0,0 l/m 0 min 2 min 0 W/m 3,2 km/h (1 Bft) 95,74 %
10.02.2019 02:34 8,4 C 7,2 C 6,1 C 85 % 1001,7 hPa 0,0 l/m 0 min 2 min 0 W/m 12,9 km/h (3 Bft) 97,87 %
10.02.2019 02:36 8,4 C 7,2 C 6,1 C 85 % 1001,7 hPa 0,0 l/m 0 min 0 min 0 W/m 12,9 km/h (3 Bft) 98,28 %
10.02.2019 02:38 8,4 C 7,2 C 6,1 C 85 % 1001,7 hPa 0,0 l/m 0 min 2 min 0 W/m 9,7 km/h (2 Bft) 97,14 %
10.02.2019 02:40 8,3 C 7,2 C 6,1 C 85 % 1001,6 hPa 0,0 l/m 0 min 2 min 0 W/m 19,3 km/h (3 Bft) 97,87 %
10.02.2019 02:42 8,3 C 7,2 C 6,7 C 85 % 1001,5 hPa 0,0 l/m 0 min 2 min 0 W/m 16,1 km/h (3 Bft) 97,87 %
10.02.2019 02:44 8,3 C 7,2 C 6,7 C 85 % 1001,4 hPa 0,0 l/m 0 min 2 min 0 W/m 9,7 km/h (2 Bft) 97,87 %
10.02.2019 02:46 8,3 C 7,2 C 6,1 C 85 % 1001,3 hPa 0,0 l/m 0 min 2 min 0 W/m 3,2 km/h (1 Bft) 97,83 %
10.02.2019 02:48 8,3 C 6,7 C 6,1 C 86 % 1001,3 hPa 0,0 l/m 0 min 2 min 0 W/m 9,7 km/h (2 Bft) 97,87 %
10.02.2019 02:50 8,2 C 6,7 C 6,1 C 86 % 1001,2 hPa 0,0 l/m 0 min 2 min 0 W/m 9,7 km/h (2 Bft) 97,87 %
10.02.2019 02:52 8,2 C 6,7 C 6,1 C 86 % 1001,1 hPa 0,0 l/m 0 min 2 min 0 W/m 12,9 km/h (3 Bft) 97,87 %
10.02.2019 02:54 8,2 C 6,7 C 6,1 C 86 % 1001,0 hPa 0,0 l/m 0 min 2 min 0 W/m 9,7 km/h (2 Bft) 97,87 %
10.02.2019 02:56 8,2 C 6,7 C 6,1 C 86 % 1001,0 hPa 0,0 l/m 0 min 0 min 0 W/m 6,4 km/h (2 Bft) 95,74 %
10.02.2019 02:58 8,2 C 7,2 C 6,1 C 86 % 1000,9 hPa 0,0 l/m 0 min 0 min 0 W/m 9,7 km/h (2 Bft) 97,83 %
10.02.2019 03:00 8,1 C 7,2 C 6,1 C 86 % 1000,8 hPa 0,0 l/m 0 min 2 min 0 W/m 16,1 km/h (3 Bft) 97,87 %
10.02.2019 03:02 8,1 C 7,2 C 6,1 C 86 % 1000,8 hPa 0,0 l/m 0 min 2 min 0 W/m 9,7 km/h (2 Bft) 95,74 %
10.02.2019 03:04 8,1 C 7,2 C 6,1 C 86 % 1000,7 hPa 0,0 l/m 0 min 2 min 0 W/m 6,4 km/h (2 Bft) 97,87 %
10.02.2019 03:06 8,1 C 7,2 C 6,1 C 86 % 1000,6 hPa 0,0 l/m 0 min 2 min 0 W/m 12,9 km/h (3 Bft) 98,31 %
10.02.2019 03:08 8,1 C 6,7 C 6,1 C 86 % 1000,6 hPa 0,0 l/m 0 min 2 min 0 W/m 9,7 km/h (2 Bft) 97,14 %
10.02.2019 03:10 8,1 C 6,7 C 5,6 C 86 % 1000,6 hPa 0,0 l/m 0 min 2 min 0 W/m 12,9 km/h (3 Bft) 97,83 %
10.02.2019 03:12 8,1 C 6,7 C 5,6 C 86 % 1000,4 hPa 0,0 l/m 0 min 2 min 0 W/m 12,9 km/h (3 Bft) 97,87 %
10.02.2019 03:14 8,1 C 6,7 C 5,6 C 86 % 1000,3 hPa 0,0 l/m 0 min 2 min 0 W/m 12,9 km/h (3 Bft) 95,74 %
10.02.2019 03:16 8,0 C 6,7 C 5,6 C 86 % 1000,3 hPa 0,0 l/m 0 min 2 min 0 W/m 25,7 km/h (4 Bft) 100,00 %
10.02.2019 03:18 8,0 C 6,7 C 5,6 C 86 % 1000,3 hPa 0,0 l/m 0 min 2 min 0 W/m 16,1 km/h (3 Bft) 100,00 %
10.02.2019 03:20 8,0 C 6,1 C 5,6 C 86 % 1000,3 hPa 0,2 l/m 0 min 2 min 0 W/m 9,7 km/h (2 Bft) 100,00 %
10.02.2019 03:22 8,0 C 6,1 C 5,6 C 87 % 1000,2 hPa 0,0 l/m 0 min 2 min 0 W/m 3,2 km/h (1 Bft) 100,00 %
10.02.2019 03:24 8,0 C 5,6 C 5,6 C 87 % 1000,2 hPa 0,0 l/m 0 min 2 min 0 W/m 22,5 km/h (4 Bft) 100,00 %
10.02.2019 03:26 7,9 C 5,6 C 5,0 C 87 % 1000,0 hPa 0,2 l/m 0 min 2 min 0 W/m 22,5 km/h (4 Bft) 100,00 %
10.02.2019 03:28 7,9 C 5,6 C 5,0 C 87 % 1000,0 hPa 0,0 l/m 0 min 2 min 0 W/m 12,9 km/h (3 Bft) 100,00 %
10.02.2019 03:30 7,9 C 5,6 C 5,0 C 87 % 1000,0 hPa 0,0 l/m 0 min 2 min 0 W/m 29,0 km/h (5 Bft) 100,00 %
10.02.2019 03:32 7,9 C 5,6 C 5,0 C 88 % 999,9 hPa 0,0 l/m 0 min 2 min 0 W/m 19,3 km/h (3 Bft) 100,00 %
10.02.2019 03:34 7,8 C 5,6 C 5,0 C 88 % 999,8 hPa 0,0 l/m 0 min 2 min 0 W/m 25,7 km/h (4 Bft) 100,00 %
10.02.2019 03:36 7,8 C 5,6 C 5,0 C 88 % 999,9 hPa 0,2 l/m 0 min 2 min 0 W/m 16,1 km/h (3 Bft) 100,00 %
10.02.2019 03:38 7,8 C 5,6 C 5,0 C 88 % 999,9 hPa 0,0 l/m 0 min 2 min 0 W/m 16,1 km/h (3 Bft) 100,00 %
10.02.2019 03:40 7,7 C 5,6 C 5,0 C 88 % 999,8 hPa 0,2 l/m 0 min 2 min 0 W/m 35,4 km/h (5 Bft) 100,00 %
10.02.2019 03:42 7,7 C 5,6 C 5,0 C 89 % 999,5 hPa 0,0 l/m 0 min 2 min 0 W/m 16,1 km/h (3 Bft) 100,00 %
10.02.2019 03:44 7,7 C 5,6 C 5,0 C 89 % 999,6 hPa 0,0 l/m 0 min 2 min 0 W/m 22,5 km/h (4 Bft) 100,00 %
10.02.2019 03:46 7,7 C 5,6 C 5,0 C 89 % 999,4 hPa 0,2 l/m 0 min 2 min 0 W/m 25,7 km/h (4 Bft) 97,83 %
10.02.2019 03:48 7,6 C 5,6 C 5,0 C 89 % 999,3 hPa 0,0 l/m 0 min 2 min 0 W/m 16,1 km/h (3 Bft) 100,00 %
10.02.2019 03:50 7,6 C 5,6 C 5,0 C 89 % 999,3 hPa 0,2 l/m 0 min 2 min 0 W/m 25,7 km/h (4 Bft) 100,00 %
10.02.2019 03:52 7,6 C 5,6 C 5,0 C 89 % 999,2 hPa 0,0 l/m 0 min 2 min 0 W/m 12,9 km/h (3 Bft) 100,00 %
10.02.2019 03:54 7,5 C 5,6 C 5,0 C 89 % 999,2 hPa 0,0 l/m 0 min 2 min 0 W/m 16,1 km/h (3 Bft) 100,00 %
10.02.2019 03:56 7,5 C 5,6 C 5,0 C 90 % 999,1 hPa 0,2 l/m 0 min 2 min 0 W/m 9,7 km/h (2 Bft) 100,00 %
10.02.2019 03:58 7,5 C 5,6 C 5,0 C 90 % 999,1 hPa 0,0 l/m 0 min 2 min 0 W/m 9,7 km/h (2 Bft) 100,00 %
10.02.2019 04:00 7,4 C 5,6 C 5,0 C 90 % 999,0 hPa 0,2 l/m 0 min 2 min 0 W/m 6,4 km/h (2 Bft) 100,00 %
10.02.2019 04:05 7,4 C 5,6 C 5,0 C 90 % 998,6 hPa 0,0 l/m 0 min 5 min 0 W/m 12,9 km/h (3 Bft) 100,00 %
10.02.2019 04:06 7,4 C 5,6 C 5,0 C 91 % 998,6 hPa 0,2 l/m 0 min 1 min 0 W/m 12,9 km/h (3 Bft) 100,00 %
10.02.2019 04:08 7,3 C 5,6 C 5,0 C 91 % 998,6 hPa 0,0 l/m 0 min 2 min 0 W/m 16,1 km/h (3 Bft) 100,00 %
10.02.2019 04:10 7,3 C 5,6 C 5,0 C 91 % 998,6 hPa 0,0 l/m 0 min 2 min 0 W/m 12,9 km/h (3 Bft) 100,00 %
10.02.2019 04:12 7,3 C 5,6 C 5,0 C 91 % 998,6 hPa 0,2 l/m 0 min 2 min 0 W/m 12,9 km/h (3 Bft) 100,00 %
10.02.2019 04:14 7,2 C 5,6 C 5,0 C 91 % 998,5 hPa 0,0 l/m 0 min 2 min 0 W/m 16,1 km/h (3 Bft) 100,00 %
10.02.2019 04:16 7,2 C 5,6 C 5,0 C 91 % 998,4 hPa 0,2 l/m 0 min 2 min 0 W/m 9,7 km/h (2 Bft) 97,87 %
10.02.2019 04:18 7,2 C 5,6 C 5,0 C 91 % 998,3 hPa 0,0 l/m 0 min 2 min 0 W/m 12,9 km/h (3 Bft) 100,00 %
10.02.2019 04:20 7,2 C 5,6 C 5,0 C 92 % 998,2 hPa 0,2 l/m 0 min 2 min 0 W/m 22,5 km/h (4 Bft) 100,00 %
10.02.2019 04:22 7,1 C 5,6 C 5,0 C 92 % 998,1 hPa 0,0 l/m 0 min 2 min 0 W/m 22,5 km/h (4 Bft) 97,87 %
10.02.2019 04:24 7,1 C 5,6 C 5,0 C 92 % 998,1 hPa 0,0 l/m 0 min 2 min 0 W/m 16,1 km/h (3 Bft) 95,74 %
10.02.2019 04:26 7,1 C 5,6 C 5,0 C 92 % 997,9 hPa 0,2 l/m 0 min 2 min 0 W/m 16,1 km/h (3 Bft) 95,74 %
10.02.2019 04:28 7,0 C 5,6 C 5,0 C 92 % 997,7 hPa 0,0 l/m 0 min 2 min 0 W/m 32,2 km/h (5 Bft) 95,74 %
10.02.2019 04:30 7,0 C 5,6 C 5,0 C 93 % 997,6 hPa 0,2 l/m 0 min 2 min 0 W/m 19,3 km/h (3 Bft) 95,74 %
10.02.2019 04:32 6,9 C 5,6 C 5,0 C 93 % 997,4 hPa 0,0 l/m 0 min 2 min 0 W/m 32,2 km/h (5 Bft) 95,65 %
10.02.2019 04:34 6,9 C 5,6 C 5,0 C 93 % 997,4 hPa 0,2 l/m 0 min 2 min 0 W/m 25,7 km/h (4 Bft) 95,74 %
10.02.2019 04:36 6,9 C 5,6 C 5,0 C 93 % 997,3 hPa 0,0 l/m 0 min 2 min 0 W/m 22,5 km/h (4 Bft) 96,61 %
10.02.2019 04:38 6,9 C 5,6 C 5,0 C 93 % 997,3 hPa 0,2 l/m 0 min 2 min 0 W/m 25,7 km/h (4 Bft) 94,29 %
10.02.2019 04:40 6,8 C 5,6 C 5,0 C 93 % 997,2 hPa 0,0 l/m 0 min 2 min 0 W/m 16,1 km/h (3 Bft) 95,74 %
10.02.2019 04:42 6,8 C 5,6 C 5,0 C 93 % 997,1 hPa 0,0 l/m 0 min 2 min 0 W/m 25,7 km/h (4 Bft) 93,62 %
10.02.2019 04:44 6,8 C 5,6 C 5,0 C 94 % 997,1 hPa 0,2 l/m 0 min 2 min 0 W/m 29,0 km/h (5 Bft) 95,65 %
10.02.2019 04:46 6,8 C 5,6 C 5,0 C 93 % 997,1 hPa 0,0 l/m 0 min 2 min 0 W/m 16,1 km/h (3 Bft) 93,62 %
10.02.2019 04:48 6,7 C 5,6 C 5,0 C 94 % 997,0 hPa 0,2 l/m 0 min 2 min 0 W/m 22,5 km/h (4 Bft) 95,74 %
10.02.2019 04:50 6,7 C 5,6 C 5,0 C 94 % 996,9 hPa 0,0 l/m 0 min 2 min 0 W/m 29,0 km/h (5 Bft) 95,74 %
10.02.2019 04:52 6,7 C 5,6 C 5,0 C 94 % 996,8 hPa 0,0 l/m 0 min 2 min 0 W/m 22,5 km/h (4 Bft) 95,74 %
10.02.2019 04:54 6,7 C 5,6 C 5,0 C 94 % 996,8 hPa 0,0 l/m 0 min 2 min 0 W/m 29,0 km/h (5 Bft) 95,74 %
10.02.2019 04:56 6,7 C 5,6 C 5,0 C 94 % 996,6 hPa 0,2 l/m 0 min 2 min 0 W/m 29,0 km/h (5 Bft) 93,48 %
10.02.2019 04:58 6,7 C 5,6 C 5,0 C 94 % 996,6 hPa 0,0 l/m 0 min 2 min 0 W/m 16,1 km/h (3 Bft) 93,62 %
10.02.2019 05:00 6,6 C 5,6 C 5,0 C 94 % 996,5 hPa 0,2 l/m 0 min 2 min 0 W/m 19,3 km/h (3 Bft) 89,36 %
10.02.2019 05:02 6,6 C 5,6 C 5,0 C 94 % 996,5 hPa 0,0 l/m 0 min 2 min 0 W/m 22,5 km/h (4 Bft) 95,74 %
10.02.2019 05:04 6,6 C 5,6 C 5,0 C 94 % 996,5 hPa 0,0 l/m 0 min 2 min 0 W/m 29,0 km/h (5 Bft) 95,74 %
10.02.2019 05:05 6,6 C 5,6 C 5,0 C 94 % 996,4 hPa 0,2 l/m 0 min 1 min 0 W/m 29,0 km/h (5 Bft) 98,25 %
10.02.2019 05:10 6,6 C 5,6 C 5,0 C 95 % 996,2 hPa 0,2 l/m 0 min 5 min 0 W/m 29,0 km/h (5 Bft) 97,37 %
10.02.2019 05:12 6,6 C 5,6 C 5,0 C 95 % 996,2 hPa 0,0 l/m 0 min 2 min 0 W/m 16,1 km/h (3 Bft) 91,67 %
10.02.2019 05:14 6,6 C 5,6 C 5,0 C 95 % 996,1 hPa 0,2 l/m 0 min 2 min 0 W/m 32,2 km/h (5 Bft) 95,74 %
10.02.2019 05:16 6,6 C 5,6 C 5,0 C 95 % 996,1 hPa 0,2 l/m 0 min 2 min 0 W/m 29,0 km/h (5 Bft) 100,00 %
10.02.2019 05:18 6,5 C 5,6 C 5,0 C 95 % 996,1 hPa 0,0 l/m 0 min 2 min 0 W/m 22,5 km/h (4 Bft) 95,92 %
10.02.2019 05:20 6,5 C 5,6 C 5,0 C 95 % 996,1 hPa 0,2 l/m 0 min 2 min 0 W/m 32,2 km/h (5 Bft) 97,87 %
10.02.2019 05:22 6,5 C 5,6 C 5,0 C 95 % 995,9 hPa 0,2 l/m 0 min 2 min 0 W/m 22,5 km/h (4 Bft) 95,74 %
10.02.2019 05:24 6,5 C 5,6 C 5,0 C 95 % 995,7 hPa 0,0 l/m 0 min 2 min 0 W/m 32,2 km/h (5 Bft) 95,24 %
10.02.2019 05:26 6,5 C 5,6 C 5,0 C 95 % 995,8 hPa 0,2 l/m 0 min 2 min 0 W/m 22,5 km/h (4 Bft) 93,88 %
10.02.2019 05:28 6,5 C 5,6 C 5,0 C 95 % 995,7 hPa 0,2 l/m 0 min 2 min 0 W/m 22,5 km/h (4 Bft) 95,83 %
10.02.2019 05:30 6,5 C 5,6 C 5,0 C 95 % 995,6 hPa 0,0 l/m 0 min 2 min 0 W/m 29,0 km/h (5 Bft) 95,83 %
10.02.2019 05:32 6,4 C 5,6 C 5,0 C 95 % 995,5 hPa 0,2 l/m 0 min 2 min 0 W/m 29,0 km/h (5 Bft) 95,74 %
10.02.2019 05:34 6,4 C 5,6 C 5,0 C 95 % 995,4 hPa 0,0 l/m 0 min 2 min 0 W/m 22,5 km/h (4 Bft) 95,74 %
10.02.2019 05:36 6,4 C 5,6 C 5,0 C 95 % 995,3 hPa 0,2 l/m 0 min 2 min 0 W/m 32,2 km/h (5 Bft) 97,67 %
10.02.2019 05:38 6,4 C 5,6 C 5,0 C 95 % 995,2 hPa 0,0 l/m 0 min 2 min 0 W/m 22,5 km/h (4 Bft) 95,74 %
10.02.2019 05:40 6,4 C 5,6 C 5,0 C 95 % 995,2 hPa 0,0 l/m 0 min 2 min 0 W/m 25,7 km/h (4 Bft) 95,65 %
10.02.2019 05:42 6,4 C 5,6 C 5,0 C 95 % 995,0 hPa 0,0 l/m 0 min 2 min 0 W/m 25,7 km/h (4 Bft) 95,92 %
10.02.2019 05:44 6,4 C 5,6 C 5,0 C 95 % 994,9 hPa 0,2 l/m 0 min 2 min 0 W/m 22,5 km/h (4 Bft) 95,92 %
10.02.2019 05:46 6,4 C 5,6 C 5,0 C 96 % 994,9 hPa 0,0 l/m 0 min 2 min 0 W/m 25,7 km/h (4 Bft) 97,87 %
10.02.2019 05:48 6,4 C 5,6 C 5,0 C 96 % 994,8 hPa 0,2 l/m 0 min 2 min 0 W/m 25,7 km/h (4 Bft) 97,87 %
10.02.2019 05:50 6,4 C 5,6 C 5,0 C 96 % 994,7 hPa 0,0 l/m 0 min 2 min 0 W/m 25,7 km/h (4 Bft) 97,87 %
10.02.2019 05:52 6,4 C 5,6 C 5,0 C 96 % 994,6 hPa 0,0 l/m 0 min 2 min 0 W/m 22,5 km/h (4 Bft) 97,87 %
10.02.2019 05:54 6,4 C 5,6 C 5,0 C 96 % 994,6 hPa 0,2 l/m 0 min 2 min 0 W/m 29,0 km/h (5 Bft) 97,62 %
10.02.2019 05:56 6,4 C 5,6 C 5,0 C 96 % 994,5 hPa 0,0 l/m 0 min 2 min 0 W/m 29,0 km/h (5 Bft) 100,00 %
10.02.2019 05:58 6,4 C 5,6 C 5,0 C 96 % 994,4 hPa 0,2 l/m 0 min 2 min 0 W/m 29,0 km/h (5 Bft) 100,00 %
10.02.2019 06:00 6,4 C 5,6 C 5,0 C 96 % 994,4 hPa 0,0 l/m 0 min 2 min 0 W/m 25,7 km/h (4 Bft) 100,00 %
10.02.2019 06:02 6,4 C 5,6 C 5,0 C 96 % 994,2 hPa 0,0 l/m 0 min 2 min 0 W/m 25,7 km/h (4 Bft) 100,00 %
10.02.2019 06:04 6,4 C 5,6 C 5,0 C 96 % 994,2 hPa 0,0 l/m 0 min 2 min 0 W/m 25,7 km/h (4 Bft) 100,00 %
10.02.2019 06:08 6,3 C 5,6 C 5,0 C 96 % 994,1 hPa 0,2 l/m 0 min 4 min 0 W/m 35,4 km/h (5 Bft) 98,92 %
10.02.2019 06:10 6,3 C 5,6 C 5,0 C 96 % 994,0 hPa 0,0 l/m 0 min 2 min 0 W/m 29,0 km/h (5 Bft) 100,00 %
10.02.2019 06:12 6,3 C 5,6 C 5,0 C 96 % 993,9 hPa 0,2 l/m 0 min 2 min 0 W/m 25,7 km/h (4 Bft) 100,00 %
10.02.2019 06:14 6,3 C 5,6 C 5,0 C 96 % 993,9 hPa 0,0 l/m 0 min 2 min 0 W/m 19,3 km/h (3 Bft) 100,00 %
10.02.2019 06:16 6,4 C 5,6 C 5,0 C 96 % 993,8 hPa 0,0 l/m 0 min 2 min 0 W/m 25,7 km/h (4 Bft) 100,00 %
10.02.2019 06:18 6,4 C 5,6 C 5,0 C 96 % 993,7 hPa 0,0 l/m 0 min 2 min 0 W/m 32,2 km/h (5 Bft) 100,00 %
10.02.2019 06:20 6,4 C 5,6 C 5,0 C 96 % 993,6 hPa 0,0 l/m 0 min 2 min 0 W/m 41,8 km/h (6 Bft) 100,00 %
10.02.2019 06:22 6,4 C 5,6 C 5,0 C 96 % 993,7 hPa 0,2 l/m 0 min 2 min 0 W/m 25,7 km/h (4 Bft) 97,87 %
10.02.2019 06:24 6,4 C 5,6 C 5,0 C 96 % 993,6 hPa 0,0 l/m 0 min 2 min 0 W/m 32,2 km/h (5 Bft) 100,00 %
10.02.2019 06:26 6,4 C 5,6 C 5,0 C 96 % 993,5 hPa 0,2 l/m 0 min 2 min 0 W/m 25,7 km/h (4 Bft) 100,00 %
10.02.2019 06:28 6,4 C 5,6 C 5,0 C 96 % 993,5 hPa 0,0 l/m 0 min 2 min 0 W/m 29,0 km/h (5 Bft) 100,00 %
10.02.2019 06:30 6,4 C 5,6 C 5,0 C 96 % 993,3 hPa 0,0 l/m 0 min 2 min 0 W/m 29,0 km/h (5 Bft) 100,00 %
10.02.2019 06:32 6,4 C 5,6 C 5,0 C 96 % 993,2 hPa 0,2 l/m 0 min 2 min 0 W/m 35,4 km/h (5 Bft) 100,00 %
10.02.2019 06:34 6,4 C 5,6 C 5,0 C 96 % 993,1 hPa 0,0 l/m 0 min 2 min 0 W/m 32,2 km/h (5 Bft) 100,00 %
10.02.2019 06:36 6,4 C 5,6 C 5,0 C 96 % 993,1 hPa 0,0 l/m 0 min 2 min 0 W/m 32,2 km/h (5 Bft) 100,00 %
10.02.2019 06:38 6,4 C 5,6 C 5,0 C 96 % 993,0 hPa 0,2 l/m 0 min 2 min 0 W/m 22,5 km/h (4 Bft) 100,00 %
10.02.2019 06:40 6,4 C 5,6 C 5,0 C 96 % 993,0 hPa 0,0 l/m 0 min 2 min 0 W/m 25,7 km/h (4 Bft) 100,00 %
10.02.2019 06:42 6,4 C 5,6 C 5,0 C 96 % 992,9 hPa 0,0 l/m 0 min 2 min 0 W/m 16,1 km/h (3 Bft) 100,00 %
10.02.2019 06:44 6,4 C 5,6 C 5,0 C 96 % 992,9 hPa 0,0 l/m 0 min 2 min 0 W/m 32,2 km/h (5 Bft) 100,00 %
10.02.2019 06:46 6,4 C 5,6 C 5,0 C 96 % 992,8 hPa 0,0 l/m 0 min 2 min 0 W/m 35,4 km/h (5 Bft) 97,62 %
10.02.2019 06:48 6,4 C 5,6 C 5,0 C 97 % 992,9 hPa 0,2 l/m 0 min 2 min 0 W/m 29,0 km/h (5 Bft) 100,00 %
10.02.2019 06:50 6,4 C 5,6 C 5,0 C 97 % 992,8 hPa 0,0 l/m 0 min 2 min 0 W/m 19,3 km/h (3 Bft) 100,00 %
10.02.2019 06:52 6,4 C 5,6 C 5,0 C 97 % 992,7 hPa 0,0 l/m 0 min 2 min 0 W/m 19,3 km/h (3 Bft) 100,00 %
10.02.2019 06:54 6,4 C 5,6 C 5,0 C 97 % 992,8 hPa 0,2 l/m 0 min 2 min 0 W/m 25,7 km/h (4 Bft) 97,87 %
10.02.2019 06:56 6,4 C 5,6 C 5,0 C 97 % 992,6 hPa 0,0 l/m 0 min 2 min 0 W/m 32,2 km/h (5 Bft) 93,62 %
10.02.2019 06:58 6,4 C 5,6 C 5,0 C 97 % 992,5 hPa 0,0 l/m 0 min 2 min 0 W/m 19,3 km/h (3 Bft) 97,67 %
10.02.2019 07:00 6,5 C 5,6 C 5,0 C 97 % 992,5 hPa 0,0 l/m 0 min 2 min 0 W/m 12,9 km/h (3 Bft) 95,65 %
10.02.2019 07:02 6,5 C 5,6 C 5,0 C 97 % 992,5 hPa 0,2 l/m 0 min 2 min 0 W/m 16,1 km/h (3 Bft) 96,00 %
10.02.2019 07:04 6,5 C 5,6 C 5,0 C 97 % 992,3 hPa 0,0 l/m 0 min 2 min 0 W/m 19,3 km/h (3 Bft) 95,74 %
10.02.2019 07:06 6,5 C 5,6 C 5,0 C 97 % 992,3 hPa 0,2 l/m 0 min 2 min 0 W/m 16,1 km/h (3 Bft) 97,92 %
10.02.2019 07:08 6,5 C 5,6 C 5,0 C 97 % 992,2 hPa 0,0 l/m 0 min 2 min 0 W/m 29,0 km/h (5 Bft) 95,74 %
10.02.2019 07:10 6,6 C 5,6 C 5,0 C 97 % 992,2 hPa 0,2 l/m 0 min 2 min 0 W/m 16,1 km/h (3 Bft) 97,87 %
10.02.2019 07:12 6,6 C 5,6 C 5,0 C 97 % 992,1 hPa 0,0 l/m 0 min 2 min 0 W/m 16,1 km/h (3 Bft) 95,74 %
10.02.2019 07:14 6,6 C 5,6 C 5,0 C 97 % 992,1 hPa 0,0 l/m 0 min 2 min 0 W/m 25,7 km/h (4 Bft) 97,62 %
10.02.2019 07:16 6,6 C 5,6 C 5,0 C 97 % 992,0 hPa 0,2 l/m 0 min 2 min 0 W/m 16,1 km/h (3 Bft) 97,96 %
10.02.2019 07:18 6,6 C 5,6 C 5,0 C 97 % 991,9 hPa 0,0 l/m 0 min 2 min 0 W/m 12,9 km/h (3 Bft) 97,96 %
10.02.2019 07:20 6,6 C 5,6 C 5,0 C 97 % 991,8 hPa 0,0 l/m 0 min 2 min 0 W/m 12,9 km/h (3 Bft) 97,87 %
10.02.2019 07:22 6,7 C 6,1 C 5,6 C 97 % 991,7 hPa 0,2 l/m 0 min 2 min 0 W/m 25,7 km/h (4 Bft) 97,87 %
10.02.2019 07:24 6,7 C 6,1 C 5,6 C 97 % 991,7 hPa 0,0 l/m 0 min 2 min 0 W/m 19,3 km/h (3 Bft) 93,62 %
10.02.2019 07:26 6,7 C 6,1 C 5,6 C 97 % 991,7 hPa 0,0 l/m 0 min 2 min 0 W/m 16,1 km/h (3 Bft) 95,74 %
10.02.2019 07:28 6,7 C 6,1 C 5,6 C 97 % 991,7 hPa 0,2 l/m 0 min 2 min 0 W/m 19,3 km/h (3 Bft) 97,62 %
10.02.2019 07:30 6,7 C 6,1 C 5,6 C 97 % 991,6 hPa 0,2 l/m 0 min 2 min 0 W/m 16,1 km/h (3 Bft) 97,87 %
10.02.2019 07:32 6,7 C 6,1 C 5,6 C 97 % 991,5 hPa 0,0 l/m 0 min 2 min 0 W/m 16,1 km/h (3 Bft) 96,00 %
10.02.2019 07:34 6,8 C 6,1 C 5,6 C 97 % 991,5 hPa 0,2 l/m 0 min 2 min 0 W/m 22,5 km/h (4 Bft) 97,92 %
10.02.2019 07:36 6,8 C 6,1 C 5,6 C 97 % 991,2 hPa 0,2 l/m 0 min 2 min 0 W/m 22,5 km/h (4 Bft) 95,74 %
10.02.2019 07:38 6,8 C 6,1 C 5,6 C 97 % 991,2 hPa 0,0 l/m 0 min 2 min 0 W/m 19,3 km/h (3 Bft) 100,00 %
10.02.2019 07:40 6,9 C 6,1 C 5,6 C 97 % 991,2 hPa 0,2 l/m 0 min 2 min 0 W/m 16,1 km/h (3 Bft) 100,00 %
10.02.2019 07:42 6,9 C 6,1 C 5,6 C 97 % 991,1 hPa 0,0 l/m 0 min 2 min 0 W/m 19,3 km/h (3 Bft) 97,87 %
10.02.2019 07:44 6,9 C 6,1 C 5,6 C 97 % 990,9 hPa 0,2 l/m 0 min 2 min 0 W/m 25,7 km/h (4 Bft) 97,62 %
10.02.2019 07:46 7,0 C 6,1 C 5,6 C 97 % 990,7 hPa 0,2 l/m 0 min 2 min 0 W/m 29,0 km/h (5 Bft) 95,92 %
10.02.2019 07:48 7,1 C 6,7 C 6,1 C 98 % 990,6 hPa 0,0 l/m 0 min 2 min 0 W/m 41,8 km/h (6 Bft) 93,75 %
10.02.2019 07:50 7,1 C 6,7 C 6,1 C 98 % 990,5 hPa 0,0 l/m 0 min 2 min 0 W/m 29,0 km/h (5 Bft) 97,92 %
10.02.2019 07:52 7,2 C 6,7 C 6,1 C 97 % 990,5 hPa 0,0 l/m 0 min 2 min 0 W/m 25,7 km/h (4 Bft) 95,74 %
10.02.2019 07:54 7,3 C 6,7 C 6,1 C 97 % 990,5 hPa 0,0 l/m 0 min 2 min 0 W/m 32,2 km/h (5 Bft) 95,74 %
10.02.2019 07:56 7,3 C 6,7 C 6,1 C 97 % 990,5 hPa 0,2 l/m 0 min 2 min 0 W/m 25,7 km/h (4 Bft) 97,87 %
10.02.2019 07:58 7,4 C 6,7 C 6,1 C 98 % 990,4 hPa 0,0 l/m 0 min 2 min 0 W/m 29,0 km/h (5 Bft) 97,62 %
10.02.2019 08:00 7,4 C 6,7 C 6,1 C 98 % 990,2 hPa 0,0 l/m 0 min 2 min 0 W/m 25,7 km/h (4 Bft) 93,62 %
10.02.2019 08:02 7,5 C 6,7 C 6,1 C 98 % 990,2 hPa 0,0 l/m 0 min 2 min 0 W/m 29,0 km/h (5 Bft) 96,00 %
10.02.2019 08:04 7,6 C 6,7 C 6,1 C 98 % 990,2 hPa 0,0 l/m 0 min 2 min 0 W/m 25,7 km/h (4 Bft) 93,62 %
10.02.2019 08:06 7,6 C 6,7 C 6,1 C 98 % 990,1 hPa 0,0 l/m 0 min 2 min 0 W/m 22,5 km/h (4 Bft) 93,75 %
10.02.2019 08:08 7,6 C 6,7 C 6,1 C 98 % 990,2 hPa 0,0 l/m 0 min 2 min 0 W/m 32,2 km/h (5 Bft) 95,74 %
10.02.2019 08:10 7,7 C 6,7 C 6,1 C 98 % 990,1 hPa 0,0 l/m 0 min 2 min 0 W/m 25,7 km/h (4 Bft) 95,74 %
10.02.2019 08:12 7,7 C 6,7 C 6,1 C 98 % 990,1 hPa 0,2 l/m 0 min 2 min 0 W/m 22,5 km/h (4 Bft) 95,74 %
10.02.2019 08:14 7,7 C 6,7 C 6,1 C 98 % 990,1 hPa 0,0 l/m 0 min 2 min 0 W/m 32,2 km/h (5 Bft) 95,24 %
10.02.2019 08:16 7,7 C 7,2 C 6,7 C 98 % 990,1 hPa 0,0 l/m 0 min 2 min 0 W/m 25,7 km/h (4 Bft) 95,74 %
10.02.2019 08:18 7,7 C 7,2 C 6,7 C 98 % 990,2 hPa 0,0 l/m 0 min 2 min 0 W/m 12,9 km/h (3 Bft) 93,88 %
10.02.2019 08:20 7,8 C 7,2 C 6,7 C 98 % 990,1 hPa 0,0 l/m 0 min 2 min 0 W/m 19,3 km/h (3 Bft) 95,74 %
10.02.2019 08:22 7,8 C 7,2 C 6,7 C 98 % 990,1 hPa 0,0 l/m 0 min 2 min 0 W/m 22,5 km/h (4 Bft) 95,83 %
10.02.2019 08:24 7,8 C 7,2 C 6,7 C 98 % 990,1 hPa 0,0 l/m 0 min 2 min 0 W/m 29,0 km/h (5 Bft) 93,75 %
10.02.2019 08:26 7,8 C 7,2 C 6,7 C 98 % 990,1 hPa 0,0 l/m 0 min 2 min 0 W/m 16,1 km/h (3 Bft) 95,65 %
10.02.2019 08:28 7,8 C 7,2 C 6,7 C 98 % 990,1 hPa 0,0 l/m 0 min 2 min 0 W/m 32,2 km/h (5 Bft) 95,74 %
10.02.2019 08:30 7,9 C 7,2 C 6,7 C 98 % 990,0 hPa 0,0 l/m 0 min 2 min 1 W/m 29,0 km/h (5 Bft) 95,74 %
10.02.2019 08:32 7,9 C 7,2 C 6,7 C 98 % 990,0 hPa 0,0 l/m 0 min 2 min 5 W/m 29,0 km/h (5 Bft) 90,48 %
10.02.2019 08:34 7,9 C 7,2 C 6,7 C 98 % 989,9 hPa 0,0 l/m 0 min 2 min 6 W/m 29,0 km/h (5 Bft) 95,83 %
10.02.2019 08:36 8,0 C 7,2 C 6,7 C 98 % 989,8 hPa 0,0 l/m 0 min 2 min 7 W/m 25,7 km/h (4 Bft) 95,74 %
10.02.2019 08:38 8,1 C 7,2 C 6,7 C 98 % 989,9 hPa 0,0 l/m 0 min 2 min 7 W/m 29,0 km/h (5 Bft) 93,88 %
10.02.2019 08:40 8,1 C 7,2 C 6,7 C 98 % 989,8 hPa 0,0 l/m 0 min 2 min 7 W/m 19,3 km/h (3 Bft) 95,83 %
10.02.2019 08:42 8,2 C 7,2 C 6,7 C 98 % 989,9 hPa 0,0 l/m 0 min 2 min 7 W/m 25,7 km/h (4 Bft) 97,87 %
10.02.2019 08:44 8,2 C 7,8 C 7,2 C 98 % 989,8 hPa 0,0 l/m 0 min 2 min 7 W/m 38,6 km/h (5 Bft) 97,87 %
10.02.2019 08:46 8,3 C 7,8 C 7,2 C 98 % 989,8 hPa 0,0 l/m 0 min 2 min 8 W/m 32,2 km/h (5 Bft) 97,62 %
10.02.2019 08:48 8,3 C 7,8 C 7,2 C 98 % 989,7 hPa 0,0 l/m 0 min 2 min 11 W/m 22,5 km/h (4 Bft) 95,83 %
10.02.2019 08:50 8,3 C 7,8 C 7,2 C 98 % 989,6 hPa 0,0 l/m 0 min 2 min 12 W/m 32,2 km/h (5 Bft) 95,92 %
10.02.2019 08:52 8,4 C 7,8 C 7,2 C 98 % 989,7 hPa 0,0 l/m 0 min 2 min 12 W/m 35,4 km/h (5 Bft) 97,92 %
10.02.2019 08:54 8,4 C 7,8 C 7,2 C 98 % 989,7 hPa 0,0 l/m 0 min 2 min 11 W/m 35,4 km/h (5 Bft) 95,74 %
10.02.2019 08:56 8,5 C 7,8 C 7,2 C 98 % 989,8 hPa 0,0 l/m 0 min 2 min 14 W/m 41,8 km/h (6 Bft) 100,00 %
10.02.2019 08:58 8,6 C 7,8 C 7,2 C 98 % 989,6 hPa 0,0 l/m 0 min 2 min 10 W/m 25,7 km/h (4 Bft) 100,00 %
10.02.2019 09:00 8,6 C 7,8 C 7,2 C 98 % 989,8 hPa 0,0 l/m 0 min 2 min 13 W/m 29,0 km/h (5 Bft) 97,87 %
10.02.2019 09:02 8,7 C 7,8 C 7,2 C 97 % 989,7 hPa 0,0 l/m 0 min 2 min 18 W/m 38,6 km/h (5 Bft) 100,00 %
10.02.2019 09:04 8,7 C 7,8 C 7,2 C 97 % 989,8 hPa 0,0 l/m 0 min 2 min 16 W/m 32,2 km/h (5 Bft) 100,00 %
10.02.2019 09:06 8,7 C 7,8 C 7,2 C 98 % 989,6 hPa 0,0 l/m 0 min 2 min 19 W/m 32,2 km/h (5 Bft) 95,83 %
10.02.2019 09:08 8,8 C 7,8 C 7,2 C 97 % 989,4 hPa 0,0 l/m 0 min 2 min 18 W/m 22,5 km/h (4 Bft) 100,00 %
10.02.2019 09:10 8,8 C 7,8 C 7,2 C 97 % 989,5 hPa 0,0 l/m 0 min 2 min 20 W/m 41,8 km/h (6 Bft) 100,00 %
10.02.2019 09:12 8,9 C 8,3 C 7,2 C 97 % 989,5 hPa 0,0 l/m 0 min 2 min 25 W/m 32,2 km/h (5 Bft) 100,00 %
10.02.2019 09:14 8,9 C 8,3 C 7,2 C 97 % 989,5 hPa 0,0 l/m 0 min 0 min 23 W/m 25,7 km/h (4 Bft) 100,00 %
10.02.2019 09:16 8,9 C 8,3 C 7,2 C 97 % 989,5 hPa 0,0 l/m 0 min 0 min 28 W/m 25,7 km/h (4 Bft) 100,00 %
10.02.2019 09:18 9,0 C 8,3 C 7,2 C 97 % 989,4 hPa 0,0 l/m 0 min 0 min 31 W/m 54,7 km/h (7 Bft) 100,00 %
10.02.2019 09:20 9,1 C 8,3 C 7,8 C 97 % 989,4 hPa 0,0 l/m 0 min 0 min 29 W/m 38,6 km/h (5 Bft) 100,00 %
10.02.2019 09:22 9,1 C 8,3 C 7,8 C 97 % 989,3 hPa 0,0 l/m 0 min 0 min 37 W/m 29,0 km/h (5 Bft) 97,87 %
10.02.2019 09:24 9,2 C 8,3 C 7,8 C 96 % 989,2 hPa 0,0 l/m 0 min 0 min 50 W/m 32,2 km/h (5 Bft) 97,83 %
10.02.2019 09:26 9,2 C 8,3 C 7,8 C 96 % 989,2 hPa 0,0 l/m 0 min 0 min 53 W/m 41,8 km/h (6 Bft) 97,62 %
10.02.2019 09:28 9,2 C 8,3 C 7,8 C 96 % 989,1 hPa 0,0 l/m 0 min 0 min 45 W/m 35,4 km/h (5 Bft) 97,87 %
10.02.2019 09:30 9,3 C 8,3 C 7,8 C 96 % 989,1 hPa 0,0 l/m 0 min 0 min 40 W/m 41,8 km/h (6 Bft) 97,87 %
10.02.2019 09:32 9,3 C 8,3 C 7,8 C 95 % 989,2 hPa 0,0 l/m 0 min 0 min 41 W/m 38,6 km/h (5 Bft) 95,92 %
10.02.2019 09:34 9,4 C 8,3 C 7,8 C 95 % 989,1 hPa 0,0 l/m 0 min 0 min 41 W/m 32,2 km/h (5 Bft) 93,62 %
10.02.2019 09:36 9,4 C 8,3 C 7,8 C 95 % 989,1 hPa 0,0 l/m 0 min 0 min 35 W/m 32,2 km/h (5 Bft) 95,92 %
10.02.2019 09:38 9,5 C 8,9 C 7,8 C 95 % 989,1 hPa 0,0 l/m 0 min 0 min 47 W/m 38,6 km/h (5 Bft) 97,92 %
10.02.2019 09:40 9,5 C 8,9 C 7,8 C 95 % 989,1 hPa 0,0 l/m 0 min 0 min 46 W/m 57,9 km/h (7 Bft) 94,29 %
10.02.2019 09:42 9,6 C 8,9 C 7,8 C 94 % 989,1 hPa 0,0 l/m 0 min 0 min 48 W/m 32,2 km/h (5 Bft) 95,74 %
10.02.2019 09:44 9,6 C 8,9 C 7,8 C 94 % 989,0 hPa 0,0 l/m 0 min 0 min 69 W/m 29,0 km/h (5 Bft) 97,87 %
10.02.2019 09:46 9,7 C 8,9 C 7,8 C 94 % 988,9 hPa 0,0 l/m 0 min 0 min 67 W/m 35,4 km/h (5 Bft) 97,62 %
10.02.2019 09:48 9,7 C 8,9 C 7,8 C 94 % 989,0 hPa 0,0 l/m 0 min 0 min 52 W/m 35,4 km/h (5 Bft) 97,92 %
10.02.2019 09:50 9,7 C 8,9 C 7,8 C 93 % 988,9 hPa 0,0 l/m 0 min 0 min 43 W/m 41,8 km/h (6 Bft) 95,92 %
10.02.2019 09:52 9,8 C 8,9 C 7,8 C 93 % 988,8 hPa 0,0 l/m 0 min 0 min 43 W/m 35,4 km/h (5 Bft) 97,92 %
10.02.2019 09:54 9,8 C 8,9 C 7,8 C 93 % 988,8 hPa 0,0 l/m 0 min 0 min 40 W/m 35,4 km/h (5 Bft) 95,74 %
10.02.2019 09:56 9,8 C 8,9 C 7,8 C 93 % 988,8 hPa 0,0 l/m 0 min 0 min 31 W/m 22,5 km/h (4 Bft) 97,87 %
10.02.2019 09:58 9,8 C 8,9 C 7,8 C 92 % 988,8 hPa 0,0 l/m 0 min 0 min 37 W/m 25,7 km/h (4 Bft) 97,67 %
10.02.2019 10:00 9,9 C 8,9 C 7,8 C 92 % 988,7 hPa 0,0 l/m 0 min 0 min 47 W/m 48,3 km/h (6 Bft) 97,83 %
10.02.2019 10:02 9,9 C 8,9 C 7,8 C 92 % 988,7 hPa 0,0 l/m 0 min 0 min 48 W/m 57,9 km/h (7 Bft) 98,00 %
10.02.2019 10:04 9,9 C 8,9 C 7,8 C 92 % 988,6 hPa 0,0 l/m 0 min 0 min 46 W/m 48,3 km/h (6 Bft) 100,00 %
10.02.2019 10:06 9,9 C 8,9 C 7,8 C 92 % 988,6 hPa 0,0 l/m 0 min 2 min 37 W/m 45,1 km/h (6 Bft) 96,67 %
10.02.2019 10:08 10,0 C 8,9 C 7,8 C 91 % 988,5 hPa 0,0 l/m 0 min 2 min 36 W/m 25,7 km/h (4 Bft) 95,74 %
10.02.2019 10:10 10,0 C 8,9 C 7,8 C 91 % 988,5 hPa 0,0 l/m 0 min 2 min 45 W/m 35,4 km/h (5 Bft) 100,00 %
10.02.2019 10:12 10,0 C 8,9 C 7,8 C 91 % 988,5 hPa 0,0 l/m 0 min 2 min 48 W/m 32,2 km/h (5 Bft) 100,00 %
10.02.2019 10:14 10,0 C 8,9 C 7,8 C 91 % 988,5 hPa 0,0 l/m 0 min 2 min 44 W/m 25,7 km/h (4 Bft) 97,83 %
10.02.2019 10:16 10,1 C 8,9 C 7,8 C 91 % 988,5 hPa 0,0 l/m 0 min 2 min 43 W/m 51,5 km/h (7 Bft) 97,67 %
10.02.2019 10:18 10,1 C 8,9 C 7,8 C 91 % 988,5 hPa 0,0 l/m 0 min 2 min 39 W/m 41,8 km/h (6 Bft) 93,88 %
10.02.2019 10:20 10,1 C 8,3 C 7,8 C 91 % 988,5 hPa 0,0 l/m 0 min 2 min 36 W/m 51,5 km/h (7 Bft) 100,00 %
10.02.2019 10:22 10,1 C 8,3 C 7,8 C 91 % 988,5 hPa 0,0 l/m 0 min 2 min 33 W/m 41,8 km/h (6 Bft) 97,87 %
10.02.2019 10:24 10,1 C 8,3 C 7,8 C 91 % 988,6 hPa 0,0 l/m 0 min 2 min 26 W/m 35,4 km/h (5 Bft) 95,74 %
10.02.2019 10:26 10,1 C 7,8 C 7,8 C 91 % 988,5 hPa 0,2 l/m 0 min 2 min 25 W/m 38,6 km/h (5 Bft) 97,83 %
10.02.2019 10:28 10,1 C 7,8 C 7,8 C 91 % 988,4 hPa 0,0 l/m 0 min 2 min 24 W/m 41,8 km/h (6 Bft) 100,00 %
10.02.2019 10:30 10,0 C 7,8 C 7,8 C 91 % 988,5 hPa 0,2 l/m 0 min 2 min 22 W/m 38,6 km/h (5 Bft) 100,00 %
10.02.2019 10:32 10,0 C 7,8 C 7,2 C 91 % 988,5 hPa 0,0 l/m 0 min 2 min 22 W/m 45,1 km/h (6 Bft) 100,00 %
10.02.2019 10:34 9,9 C 7,8 C 7,2 C 91 % 988,5 hPa 0,2 l/m 0 min 2 min 19 W/m 32,2 km/h (5 Bft) 100,00 %
10.02.2019 10:36 9,9 C 7,8 C 7,2 C 92 % 988,4 hPa 0,2 l/m 0 min 2 min 18 W/m 32,2 km/h (5 Bft) 96,55 %
10.02.2019 10:38 9,8 C 7,8 C 7,2 C 92 % 988,6 hPa 0,0 l/m 0 min 2 min 14 W/m 22,5 km/h (4 Bft) 100,00 %
10.02.2019 10:40 9,8 C 7,8 C 7,2 C 92 % 988,6 hPa 0,0 l/m 0 min 2 min 15 W/m 32,2 km/h (5 Bft) 97,87 %
10.02.2019 10:42 9,8 C 7,8 C 7,2 C 92 % 988,4 hPa 0,2 l/m 0 min 2 min 17 W/m 22,5 km/h (4 Bft) 97,62 %
10.02.2019 10:44 9,7 C 7,8 C 7,2 C 92 % 988,4 hPa 0,0 l/m 0 min 2 min 19 W/m 22,5 km/h (4 Bft) 100,00 %
10.02.2019 10:46 9,7 C 7,8 C 7,2 C 93 % 988,4 hPa 0,2 l/m 0 min 2 min 18 W/m 22,5 km/h (4 Bft) 100,00 %
10.02.2019 10:48 9,6 C 7,8 C 7,2 C 93 % 988,4 hPa 0,2 l/m 0 min 2 min 17 W/m 25,7 km/h (4 Bft) 97,92 %
10.02.2019 10:50 9,6 C 7,8 C 7,2 C 93 % 988,5 hPa 0,2 l/m 0 min 2 min 21 W/m 22,5 km/h (4 Bft) 95,74 %
10.02.2019 10:52 9,5 C 7,8 C 7,2 C 93 % 988,5 hPa 0,0 l/m 0 min 2 min 26 W/m 32,2 km/h (5 Bft) 100,00 %
10.02.2019 10:54 9,5 C 7,8 C 7,2 C 93 % 988,2 hPa 0,2 l/m 0 min 2 min 27 W/m 32,2 km/h (5 Bft) 100,00 %
10.02.2019 10:56 9,4 C 7,8 C 7,2 C 93 % 988,3 hPa 0,2 l/m 0 min 2 min 23 W/m 22,5 km/h (4 Bft) 97,96 %
10.02.2019 10:58 9,4 C 7,8 C 7,2 C 94 % 988,3 hPa 0,0 l/m 0 min 2 min 19 W/m 25,7 km/h (4 Bft) 95,92 %
10.02.2019 11:00 9,4 C 7,8 C 7,2 C 94 % 988,3 hPa 0,2 l/m 0 min 2 min 23 W/m 25,7 km/h (4 Bft) 95,74 %
10.02.2019 11:02 9,4 C 7,8 C 7,2 C 94 % 988,2 hPa 0,0 l/m 0 min 2 min 22 W/m 32,2 km/h (5 Bft) 95,74 %
10.02.2019 11:04 9,4 C 7,8 C 7,2 C 94 % 988,3 hPa 0,2 l/m 0 min 2 min 20 W/m 19,3 km/h (3 Bft) 93,62 %
10.02.2019 11:06 9,3 C 7,8 C 7,2 C 94 % 988,4 hPa 0,0 l/m 0 min 2 min 16 W/m 32,2 km/h (5 Bft) 94,92 %
10.02.2019 11:08 9,3 C 7,8 C 7,2 C 94 % 988,3 hPa 0,2 l/m 0 min 2 min 19 W/m 19,3 km/h (3 Bft) 94,29 %
10.02.2019 11:10 9,3 C 7,8 C 7,2 C 94 % 988,3 hPa 0,2 l/m 0 min 2 min 16 W/m 16,1 km/h (3 Bft) 95,74 %
10.02.2019 11:12 9,3 C 7,8 C 7,2 C 94 % 988,4 hPa 0,0 l/m 0 min 2 min 17 W/m 12,9 km/h (3 Bft) 95,65 %
10.02.2019 11:14 9,3 C 7,8 C 7,2 C 94 % 988,3 hPa 0,2 l/m 0 min 2 min 17 W/m 6,4 km/h (2 Bft) 95,35 %
10.02.2019 11:16 9,2 C 7,8 C 7,2 C 95 % 988,5 hPa 0,2 l/m 0 min 2 min 19 W/m 12,9 km/h (3 Bft) 95,92 %
10.02.2019 11:18 9,2 C 7,8 C 7,2 C 95 % 988,4 hPa 0,2 l/m 0 min 2 min 19 W/m 22,5 km/h (4 Bft) 93,88 %
10.02.2019 11:20 9,2 C 7,8 C 7,2 C 95 % 988,4 hPa 0,4 l/m 0 min 2 min 24 W/m 25,7 km/h (4 Bft) 95,65 %
10.02.2019 11:22 9,2 C 7,8 C 7,2 C 95 % 988,2 hPa 0,2 l/m 0 min 2 min 28 W/m 32,2 km/h (5 Bft) 95,83 %
10.02.2019 11:24 9,2 C 7,8 C 7,2 C 95 % 988,3 hPa 0,2 l/m 0 min 2 min 32 W/m 32,2 km/h (5 Bft) 95,74 %
10.02.2019 11:26 9,1 C 7,8 C 7,2 C 95 % 988,1 hPa 0,0 l/m 0 min 2 min 39 W/m 25,7 km/h (4 Bft) 95,65 %
10.02.2019 11:28 9,1 C 7,8 C 7,2 C 95 % 988,1 hPa 0,2 l/m 0 min 2 min 46 W/m 29,0 km/h (5 Bft) 95,35 %
10.02.2019 11:30 9,1 C 7,8 C 7,2 C 95 % 988,1 hPa 0,0 l/m 0 min 2 min 48 W/m 25,7 km/h (4 Bft) 95,92 %
10.02.2019 11:32 9,1 C 7,8 C 7,2 C 95 % 988,0 hPa 0,0 l/m 0 min 2 min 45 W/m 22,5 km/h (4 Bft) 95,92 %
10.02.2019 11:34 9,1 C 7,8 C 7,2 C 95 % 988,0 hPa 0,0 l/m 0 min 2 min 41 W/m 16,1 km/h (3 Bft) 93,62 %
10.02.2019 11:36 9,1 C 7,8 C 7,2 C 95 % 988,1 hPa 0,0 l/m 0 min 2 min 51 W/m 12,9 km/h (3 Bft) 96,55 %
10.02.2019 11:38 9,1 C 7,8 C 7,2 C 95 % 988,1 hPa 0,0 l/m 0 min 0 min 58 W/m 41,8 km/h (6 Bft) 97,62 %
10.02.2019 11:40 9,1 C 7,8 C 7,8 C 95 % 988,2 hPa 0,0 l/m 0 min 2 min 66 W/m 22,5 km/h (4 Bft) 94,29 %
10.02.2019 11:42 9,1 C 7,8 C 7,8 C 96 % 988,2 hPa 0,0 l/m 0 min 2 min 67 W/m 25,7 km/h (4 Bft) 95,92 %
10.02.2019 11:44 9,1 C 7,8 C 7,8 C 96 % 988,1 hPa 0,0 l/m 0 min 2 min 64 W/m 29,0 km/h (5 Bft) 95,83 %
10.02.2019 11:46 9,1 C 8,3 C 7,8 C 96 % 988,1 hPa 0,0 l/m 0 min 2 min 78 W/m 25,7 km/h (4 Bft) 95,92 %
10.02.2019 11:48 9,1 C 8,3 C 7,8 C 96 % 988,1 hPa 0,0 l/m 0 min 2 min 88 W/m 25,7 km/h (4 Bft) 93,62 %
10.02.2019 11:50 9,1 C 8,3 C 7,8 C 96 % 988,2 hPa 0,0 l/m 0 min 2 min 99 W/m 32,2 km/h (5 Bft) 93,62 %
10.02.2019 11:52 9,1 C 8,3 C 7,8 C 96 % 988,1 hPa 0,0 l/m 0 min 2 min 106 W/m 25,7 km/h (4 Bft) 97,96 %
10.02.2019 11:54 9,1 C 8,3 C 7,8 C 96 % 988,1 hPa 0,0 l/m 0 min 2 min 99 W/m 25,7 km/h (4 Bft) 95,74 %
10.02.2019 11:56 9,1 C 8,3 C 7,8 C 96 % 988,2 hPa 0,0 l/m 0 min 2 min 95 W/m 22,5 km/h (4 Bft) 97,87 %
10.02.2019 11:58 9,1 C 8,3 C 7,8 C 96 % 988,1 hPa 0,0 l/m 0 min 0 min 90 W/m 19,3 km/h (3 Bft) 97,56 %
10.02.2019 12:00 9,1 C 8,3 C 7,8 C 96 % 988,1 hPa 0,0 l/m 0 min 2 min 96 W/m 22,5 km/h (4 Bft) 97,87 %
10.02.2019 12:02 9,1 C 8,3 C 7,8 C 96 % 988,2 hPa 0,0 l/m 0 min 2 min 97 W/m 35,4 km/h (5 Bft) 97,87 %
10.02.2019 12:04 9,2 C 8,3 C 7,8 C 96 % 988,2 hPa 0,0 l/m 0 min 2 min 94 W/m 25,7 km/h (4 Bft) 93,62 %
10.02.2019 12:08 9,2 C 8,3 C 7,8 C 96 % 988,3 hPa 0,0 l/m 0 min 4 min 77 W/m 32,2 km/h (5 Bft) 97,96 %
10.02.2019 12:10 9,2 C 8,3 C 7,8 C 96 % 988,2 hPa 0,0 l/m 0 min 2 min 94 W/m 16,1 km/h (3 Bft) 93,62 %
10.02.2019 12:12 9,2 C 8,3 C 7,8 C 96 % 988,3 hPa 0,2 l/m 0 min 2 min 99 W/m 29,0 km/h (5 Bft) 97,87 %
10.02.2019 12:14 9,2 C 8,3 C 7,8 C 96 % 988,2 hPa 0,0 l/m 0 min 2 min 114 W/m 32,2 km/h (5 Bft) 97,87 %
10.02.2019 12:16 9,2 C 8,3 C 7,8 C 96 % 988,1 hPa 0,0 l/m 0 min 2 min 99 W/m 45,1 km/h (6 Bft) 97,87 %
10.02.2019 12:18 9,2 C 7,8 C 7,8 C 96 % 988,1 hPa 0,0 l/m 0 min 2 min 89 W/m 32,2 km/h (5 Bft) 97,62 %
10.02.2019 12:20 9,1 C 7,8 C 7,8 C 96 % 988,1 hPa 0,0 l/m 0 min 2 min 92 W/m 16,1 km/h (3 Bft) 97,96 %
10.02.2019 12:22 9,2 C 7,8 C 7,8 C 96 % 988,1 hPa 0,0 l/m 0 min 2 min 87 W/m 35,4 km/h (5 Bft) 97,96 %
10.02.2019 12:24 9,1 C 7,8 C 7,2 C 96 % 988,1 hPa 0,0 l/m 0 min 2 min 76 W/m 25,7 km/h (4 Bft) 91,49 %
10.02.2019 12:26 9,1 C 7,8 C 7,2 C 96 % 988,1 hPa 0,0 l/m 0 min 2 min 72 W/m 32,2 km/h (5 Bft) 97,87 %
10.02.2019 12:28 9,1 C 7,8 C 7,2 C 96 % 988,1 hPa 0,0 l/m 0 min 2 min 94 W/m 25,7 km/h (4 Bft) 95,74 %
10.02.2019 12:30 9,1 C 7,8 C 7,8 C 96 % 988,1 hPa 0,0 l/m 0 min 2 min 100 W/m 19,3 km/h (3 Bft) 100,00 %
10.02.2019 12:32 9,1 C 7,8 C 7,8 C 96 % 988,1 hPa 0,0 l/m 0 min 2 min 103 W/m 29,0 km/h (5 Bft) 94,00 %
10.02.2019 12:34 9,1 C 8,3 C 7,8 C 96 % 988,0 hPa 0,0 l/m 0 min 2 min 115 W/m 22,5 km/h (4 Bft) 100,00 %
10.02.2019 12:36 9,1 C 8,3 C 7,8 C 96 % 988,0 hPa 0,0 l/m 0 min 2 min 129 W/m 35,4 km/h (5 Bft) 100,00 %
10.02.2019 12:38 9,1 C 7,8 C 7,8 C 96 % 988,0 hPa 0,0 l/m 0 min 2 min 129 W/m 41,8 km/h (6 Bft) 97,87 %
10.02.2019 12:40 9,1 C 7,8 C 7,8 C 95 % 988,0 hPa 0,0 l/m 0 min 2 min 102 W/m 38,6 km/h (5 Bft) 100,00 %
10.02.2019 12:42 9,1 C 7,8 C 7,2 C 96 % 988,0 hPa 0,0 l/m 0 min 2 min 80 W/m 32,2 km/h (5 Bft) 97,56 %
10.02.2019 12:44 9,0 C 7,8 C 7,2 C 95 % 988,0 hPa 0,0 l/m 0 min 2 min 72 W/m 22,5 km/h (4 Bft) 97,96 %
10.02.2019 12:46 9,0 C 7,8 C 7,2 C 95 % 988,0 hPa 0,0 l/m 0 min 2 min 61 W/m 29,0 km/h (5 Bft) 100,00 %
10.02.2019 12:48 9,0 C 7,8 C 7,2 C 95 % 988,0 hPa 0,0 l/m 0 min 2 min 57 W/m 25,7 km/h (4 Bft) 100,00 %
10.02.2019 12:50 8,9 C 7,8 C 7,2 C 95 % 988,0 hPa 0,2 l/m 0 min 2 min 48 W/m 35,4 km/h (5 Bft) 100,00 %
10.02.2019 12:52 8,9 C 7,8 C 7,2 C 95 % 988,2 hPa 0,0 l/m 0 min 2 min 42 W/m 19,3 km/h (3 Bft) 97,87 %
10.02.2019 12:54 8,9 C 7,8 C 7,2 C 95 % 988,2 hPa 0,0 l/m 0 min 2 min 36 W/m 12,9 km/h (3 Bft) 100,00 %
10.02.2019 12:56 8,9 C 7,2 C 7,2 C 95 % 988,2 hPa 0,0 l/m 0 min 2 min 30 W/m 22,5 km/h (4 Bft) 100,00 %
10.02.2019 12:58 8,8 C 7,2 C 6,7 C 95 % 988,2 hPa 0,2 l/m 0 min 2 min 33 W/m 22,5 km/h (4 Bft) 100,00 %
10.02.2019 13:00 8,8 C 7,2 C 6,7 C 95 % 988,1 hPa 0,0 l/m 0 min 2 min 41 W/m 29,0 km/h (5 Bft) 100,00 %
10.02.2019 13:02 8,8 C 7,2 C 7,2 C 95 % 988,2 hPa 0,0 l/m 0 min 2 min 48 W/m 22,5 km/h (4 Bft) 98,00 %
10.02.2019 13:04 8,7 C 7,2 C 7,2 C 95 % 988,4 hPa 0,0 l/m 0 min 2 min 73 W/m 19,3 km/h (3 Bft) 97,78 %
10.02.2019 13:06 8,7 C 7,2 C 6,7 C 95 % 988,2 hPa 0,0 l/m 0 min 2 min 89 W/m 25,7 km/h (4 Bft) 100,00 %
10.02.2019 13:08 8,7 C 7,2 C 6,7 C 95 % 988,2 hPa 0,0 l/m 0 min 2 min 89 W/m 29,0 km/h (5 Bft) 100,00 %
10.02.2019 13:10 8,6 C 7,2 C 6,7 C 95 % 988,2 hPa 0,0 l/m 0 min 2 min 90 W/m 19,3 km/h (3 Bft) 100,00 %
10.02.2019 13:12 8,6 C 7,2 C 6,7 C 95 % 988,5 hPa 0,0 l/m 0 min 2 min 82 W/m 32,2 km/h (5 Bft) 100,00 %
10.02.2019 13:14 8,5 C 7,2 C 6,7 C 95 % 988,2 hPa 0,0 l/m 0 min 2 min 78 W/m 32,2 km/h (5 Bft) 100,00 %
10.02.2019 13:16 8,4 C 7,2 C 6,7 C 94 % 988,4 hPa 0,0 l/m 0 min 2 min 80 W/m 22,5 km/h (4 Bft) 100,00 %
10.02.2019 13:18 8,4 C 6,7 C 6,7 C 94 % 988,4 hPa 0,0 l/m 0 min 2 min 82 W/m 22,5 km/h (4 Bft) 100,00 %
10.02.2019 13:20 8,3 C 6,7 C 6,7 C 94 % 988,4 hPa 0,0 l/m 0 min 2 min 86 W/m 25,7 km/h (4 Bft) 100,00 %
10.02.2019 13:22 8,3 C 6,7 C 6,7 C 94 % 988,3 hPa 0,2 l/m 0 min 2 min 88 W/m 16,1 km/h (3 Bft) 100,00 %
10.02.2019 13:24 8,2 C 6,7 C 6,7 C 94 % 988,3 hPa 0,0 l/m 0 min 2 min 78 W/m 22,5 km/h (4 Bft) 100,00 %
10.02.2019 13:26 8,2 C 7,2 C 6,7 C 94 % 988,4 hPa 0,0 l/m 0 min 2 min 65 W/m 9,7 km/h (2 Bft) 100,00 %
10.02.2019 13:28 8,2 C 6,7 C 6,7 C 94 % 988,4 hPa 0,0 l/m 0 min 2 min 64 W/m 19,3 km/h (3 Bft) 100,00 %
10.02.2019 13:30 8,2 C 6,7 C 6,7 C 94 % 988,4 hPa 0,0 l/m 0 min 2 min 64 W/m 19,3 km/h (3 Bft) 97,56 %
10.02.2019 13:32 8,2 C 6,7 C 6,7 C 94 % 988,4 hPa 0,0 l/m 0 min 2 min 53 W/m 22,5 km/h (4 Bft) 100,00 %
10.02.2019 13:34 8,2 C 6,7 C 6,1 C 94 % 988,4 hPa 0,0 l/m 0 min 2 min 54 W/m 22,5 km/h (4 Bft) 100,00 %
10.02.2019 13:36 8,2 C 6,7 C 6,1 C 94 % 988,5 hPa 0,0 l/m 0 min 2 min 60 W/m 19,3 km/h (3 Bft) 100,00 %
10.02.2019 13:38 8,1 C 6,7 C 6,1 C 94 % 988,4 hPa 0,0 l/m 0 min 2 min 61 W/m 25,7 km/h (4 Bft) 100,00 %
10.02.2019 13:40 8,1 C 6,7 C 6,1 C 94 % 988,4 hPa 0,0 l/m 0 min 2 min 61 W/m 22,5 km/h (4 Bft) 95,74 %
10.02.2019 13:42 8,1 C 6,7 C 6,1 C 94 % 988,5 hPa 0,0 l/m 0 min 2 min 54 W/m 22,5 km/h (4 Bft) 97,83 %
10.02.2019 13:44 8,0 C 6,7 C 6,1 C 94 % 988,5 hPa 0,0 l/m 0 min 2 min 49 W/m 12,9 km/h (3 Bft) 97,67 %
10.02.2019 13:46 8,0 C 6,7 C 6,1 C 94 % 988,4 hPa 0,0 l/m 0 min 2 min 52 W/m 41,8 km/h (6 Bft) 97,96 %
10.02.2019 13:48 7,9 C 6,7 C 6,1 C 94 % 988,4 hPa 0,0 l/m 0 min 2 min 61 W/m 29,0 km/h (5 Bft) 97,96 %
10.02.2019 13:50 7,9 C 6,7 C 6,1 C 94 % 988,4 hPa 0,0 l/m 0 min 2 min 77 W/m 12,9 km/h (3 Bft) 97,87 %
10.02.2019 13:52 7,9 C 6,7 C 6,1 C 94 % 988,4 hPa 0,0 l/m 0 min 2 min 84 W/m 9,7 km/h (2 Bft) 97,87 %
10.02.2019 13:54 7,9 C 6,7 C 6,7 C 94 % 988,4 hPa 0,0 l/m 0 min 2 min 94 W/m 9,7 km/h (2 Bft) 97,83 %
10.02.2019 13:56 7,9 C 7,2 C 6,7 C 94 % 988,3 hPa 0,2 l/m 0 min 2 min 121 W/m 12,9 km/h (3 Bft) 97,67 %
10.02.2019 13:58 7,9 C 7,2 C 6,7 C 94 % 988,4 hPa 0,0 l/m 0 min 2 min 154 W/m 12,9 km/h (3 Bft) 100,00 %
10.02.2019 14:00 8,0 C 7,8 C 6,7 C 94 % 988,4 hPa 0,0 l/m 2 min 2 min 216 W/m 16,1 km/h (3 Bft) 100,00 %
10.02.2019 14:02 8,1 C 7,8 C 7,2 C 95 % 988,4 hPa 0,0 l/m 2 min 2 min 240 W/m 12,9 km/h (3 Bft) 97,83 %
10.02.2019 14:04 8,1 C 7,8 C 7,2 C 95 % 988,3 hPa 0,0 l/m 2 min 2 min 203 W/m 22,5 km/h (4 Bft) 97,87 %
10.02.2019 14:06 8,2 C 7,8 C 7,2 C 95 % 988,3 hPa 0,0 l/m 0 min 2 min 178 W/m 19,3 km/h (3 Bft) 95,83 %
10.02.2019 14:08 8,2 C 7,8 C 7,2 C 95 % 988,4 hPa 0,0 l/m 2 min 2 min 190 W/m 25,7 km/h (4 Bft) 95,74 %
10.02.2019 14:10 8,2 C 8,3 C 7,2 C 95 % 988,5 hPa 0,0 l/m 2 min 2 min 243 W/m 25,7 km/h (4 Bft) 96,00 %
10.02.2019 14:12 8,2 C 7,8 C 7,2 C 95 % 988,5 hPa 0,0 l/m 2 min 2 min 217 W/m 22,5 km/h (4 Bft) 95,74 %
10.02.2019 14:14 8,3 C 7,8 C 7,2 C 95 % 988,4 hPa 0,0 l/m 0 min 2 min 164 W/m 25,7 km/h (4 Bft) 95,74 %
10.02.2019 14:16 8,3 C 7,8 C 7,2 C 95 % 988,4 hPa 0,0 l/m 0 min 2 min 138 W/m 32,2 km/h (5 Bft) 92,68 %
10.02.2019 14:18 8,3 C 7,8 C 7,2 C 95 % 988,4 hPa 0,0 l/m 0 min 2 min 121 W/m 16,1 km/h (3 Bft) 93,88 %
10.02.2019 14:20 8,3 C 7,8 C 7,2 C 95 % 988,5 hPa 0,0 l/m 0 min 0 min 113 W/m 29,0 km/h (5 Bft) 93,88 %
10.02.2019 14:22 8,3 C 7,8 C 7,2 C 95 % 988,5 hPa 0,0 l/m 0 min 2 min 111 W/m 32,2 km/h (5 Bft) 93,75 %
10.02.2019 14:24 8,3 C 7,8 C 7,2 C 95 % 988,5 hPa 0,0 l/m 0 min 0 min 97 W/m 12,9 km/h (3 Bft) 93,62 %
10.02.2019 14:26 8,3 C 7,8 C 7,2 C 95 % 988,5 hPa 0,0 l/m 0 min 0 min 97 W/m 12,9 km/h (3 Bft) 91,49 %
10.02.2019 14:28 8,3 C 7,8 C 7,2 C 95 % 988,5 hPa 0,0 l/m 0 min 0 min 90 W/m 16,1 km/h (3 Bft) 95,12 %
10.02.2019 14:30 8,3 C 7,2 C 7,2 C 95 % 988,4 hPa 0,0 l/m 0 min 0 min 80 W/m 16,1 km/h (3 Bft) 91,84 %
10.02.2019 14:32 8,3 C 7,2 C 6,7 C 95 % 988,4 hPa 0,0 l/m 0 min 0 min 70 W/m 19,3 km/h (3 Bft) 91,49 %
10.02.2019 14:34 8,3 C 7,2 C 6,7 C 95 % 988,3 hPa 0,0 l/m 0 min 0 min 70 W/m 16,1 km/h (3 Bft) 93,62 %
10.02.2019 14:36 8,2 C 7,2 C 6,7 C 95 % 988,4 hPa 0,0 l/m 0 min 0 min 42 W/m 19,3 km/h (3 Bft) 93,62 %
10.02.2019 14:38 8,2 C 7,2 C 6,7 C 95 % 988,5 hPa 0,0 l/m 0 min 0 min 32 W/m 19,3 km/h (3 Bft) 93,48 %
10.02.2019 14:40 8,2 C 7,2 C 6,7 C 95 % 988,5 hPa 0,0 l/m 0 min 0 min 27 W/m 22,5 km/h (4 Bft) 93,62 %
10.02.2019 14:42 8,2 C 7,2 C 6,7 C 95 % 988,5 hPa 0,0 l/m 0 min 0 min 27 W/m 25,7 km/h (4 Bft) 93,62 %
10.02.2019 14:44 8,2 C 7,2 C 6,7 C 94 % 988,4 hPa 0,0 l/m 0 min 0 min 26 W/m 25,7 km/h (4 Bft) 93,62 %
10.02.2019 14:46 8,1 C 7,2 C 6,7 C 95 % 988,5 hPa 0,0 l/m 0 min 0 min 43 W/m 22,5 km/h (4 Bft) 91,49 %
10.02.2019 14:48 8,1 C 7,2 C 6,7 C 95 % 988,4 hPa 0,0 l/m 0 min 0 min 55 W/m 16,1 km/h (3 Bft) 93,62 %
10.02.2019 14:50 8,1 C 7,2 C 6,7 C 95 % 988,5 hPa 0,0 l/m 0 min 0 min 62 W/m 19,3 km/h (3 Bft) 93,48 %
10.02.2019 14:52 8,1 C 7,2 C 6,7 C 94 % 988,4 hPa 0,0 l/m 0 min 0 min 54 W/m 16,1 km/h (3 Bft) 93,62 %
10.02.2019 14:54 8,1 C 7,2 C 6,7 C 94 % 988,4 hPa 0,0 l/m 0 min 0 min 87 W/m 22,5 km/h (4 Bft) 93,62 %
10.02.2019 14:56 8,1 C 7,2 C 6,7 C 94 % 988,3 hPa 0,0 l/m 0 min 0 min 115 W/m 19,3 km/h (3 Bft) 95,74 %
10.02.2019 14:58 8,1 C 7,2 C 6,7 C 94 % 988,3 hPa 0,0 l/m 0 min 0 min 110 W/m 22,5 km/h (4 Bft) 95,74 %
10.02.2019 15:00 8,1 C 7,2 C 6,7 C 94 % 988,3 hPa 0,0 l/m 0 min 0 min 95 W/m 22,5 km/h (4 Bft) 93,48 %
10.02.2019 15:02 8,1 C 7,2 C 6,7 C 94 % 988,3 hPa 0,0 l/m 0 min 0 min 80 W/m 19,3 km/h (3 Bft) 100,00 %
10.02.2019 15:04 8,1 C 7,2 C 6,7 C 94 % 988,3 hPa 0,0 l/m 0 min 0 min 72 W/m 25,7 km/h (4 Bft) 95,74 %
10.02.2019 15:06 8,1 C 7,2 C 6,7 C 94 % 988,4 hPa 0,0 l/m 0 min 0 min 73 W/m 22,5 km/h (4 Bft) 100,00 %
10.02.2019 15:08 8,1 C 7,2 C 6,7 C 94 % 988,3 hPa 0,0 l/m 0 min 0 min 75 W/m 19,3 km/h (3 Bft) 100,00 %
10.02.2019 15:10 8,1 C 7,2 C 6,7 C 94 % 988,3 hPa 0,0 l/m 0 min 0 min 73 W/m 22,5 km/h (4 Bft) 97,87 %
10.02.2019 15:12 8,1 C 7,2 C 6,7 C 94 % 988,4 hPa 0,0 l/m 0 min 0 min 69 W/m 9,7 km/h (2 Bft) 97,83 %
10.02.2019 15:14 8,1 C 7,2 C 6,7 C 94 % 988,5 hPa 0,0 l/m 0 min 2 min 65 W/m 19,3 km/h (3 Bft) 97,87 %
10.02.2019 15:16 8,1 C 7,2 C 6,7 C 94 % 988,4 hPa 0,0 l/m 0 min 0 min 56 W/m 16,1 km/h (3 Bft) 97,87 %
10.02.2019 15:18 8,1 C 7,2 C 6,7 C 94 % 988,4 hPa 0,0 l/m 0 min 0 min 47 W/m 22,5 km/h (4 Bft) 100,00 %
10.02.2019 15:20 8,1 C 7,2 C 6,7 C 93 % 988,4 hPa 0,0 l/m 0 min 2 min 44 W/m 16,1 km/h (3 Bft) 100,00 %
10.02.2019 15:22 8,1 C 7,2 C 6,7 C 93 % 988,5 hPa 0,0 l/m 0 min 2 min 44 W/m 16,1 km/h (3 Bft) 97,87 %
10.02.2019 15:24 8,1 C 6,7 C 6,1 C 93 % 988,6 hPa 0,0 l/m 0 min 2 min 38 W/m 16,1 km/h (3 Bft) 97,83 %
10.02.2019 15:26 8,1 C 6,7 C 6,1 C 93 % 988,6 hPa 0,0 l/m 0 min 2 min 30 W/m 22,5 km/h (4 Bft) 100,00 %
10.02.2019 15:28 8,1 C 6,7 C 6,1 C 93 % 988,7 hPa 0,0 l/m 0 min 2 min 26 W/m 22,5 km/h (4 Bft) 100,00 %
10.02.2019 15:30 8,1 C 6,1 C 6,1 C 93 % 988,6 hPa 0,0 l/m 0 min 2 min 23 W/m 22,5 km/h (4 Bft) 100,00 %
10.02.2019 15:32 8,0 C 6,1 C 6,1 C 93 % 988,6 hPa 0,2 l/m 0 min 2 min 16 W/m 16,1 km/h (3 Bft) 91,49 %
10.02.2019 15:34 8,0 C 6,1 C 6,1 C 93 % 988,6 hPa 0,0 l/m 0 min 2 min 14 W/m 35,4 km/h (5 Bft) 91,49 %
10.02.2019 15:36 7,9 C 6,1 C 5,6 C 93 % 988,7 hPa 0,0 l/m 0 min 2 min 13 W/m 25,7 km/h (4 Bft) 95,65 %
10.02.2019 15:38 7,9 C 6,1 C 5,6 C 93 % 988,6 hPa 0,2 l/m 0 min 2 min 20 W/m 19,3 km/h (3 Bft) 100,00 %
10.02.2019 15:40 7,9 C 6,1 C 6,1 C 93 % 988,6 hPa 0,0 l/m 0 min 2 min 21 W/m 9,7 km/h (2 Bft) 100,00 %
10.02.2019 15:42 7,9 C 6,1 C 6,1 C 93 % 988,6 hPa 0,0 l/m 0 min 2 min 20 W/m 19,3 km/h (3 Bft) 100,00 %
10.02.2019 15:44 7,8 C 6,1 C 6,1 C 93 % 988,6 hPa 0,0 l/m 0 min 2 min 18 W/m 22,5 km/h (4 Bft) 100,00 %
10.02.2019 15:46 7,8 C 6,1 C 5,6 C 93 % 988,6 hPa 0,0 l/m 0 min 2 min 15 W/m 19,3 km/h (3 Bft) 97,87 %
10.02.2019 15:48 7,8 C 6,1 C 5,6 C 93 % 988,6 hPa 0,2 l/m 0 min 2 min 16 W/m 9,7 km/h (2 Bft) 100,00 %
10.02.2019 15:50 7,8 C 6,1 C 5,6 C 93 % 988,6 hPa 0,0 l/m 0 min 2 min 18 W/m 9,7 km/h (2 Bft) 100,00 %
10.02.2019 15:52 7,7 C 6,1 C 5,6 C 93 % 988,6 hPa 0,0 l/m 0 min 2 min 19 W/m 12,9 km/h (3 Bft) 100,00 %
10.02.2019 15:54 7,7 C 6,1 C 5,6 C 93 % 988,6 hPa 0,2 l/m 0 min 2 min 16 W/m 16,1 km/h (3 Bft) 100,00 %
10.02.2019 15:56 7,7 C 6,1 C 5,6 C 94 % 988,6 hPa 0,0 l/m 0 min 2 min 9 W/m 19,3 km/h (3 Bft) 100,00 %
10.02.2019 15:58 7,7 C 6,1 C 5,6 C 94 % 988,5 hPa 0,0 l/m 0 min 2 min 7 W/m 12,9 km/h (3 Bft) 97,87 %
10.02.2019 16:00 7,6 C 6,1 C 5,6 C 94 % 988,5 hPa 0,0 l/m 0 min 2 min 11 W/m 12,9 km/h (3 Bft) 100,00 %
10.02.2019 16:02 7,6 C 6,1 C 5,6 C 94 % 988,6 hPa 0,0 l/m 0 min 2 min 24 W/m 12,9 km/h (3 Bft) 100,00 %
10.02.2019 16:04 7,6 C 6,1 C 5,6 C 94 % 988,6 hPa 0,0 l/m 0 min 2 min 18 W/m 19,3 km/h (3 Bft) 100,00 %
10.02.2019 16:06 7,6 C 6,1 C 5,6 C 94 % 988,6 hPa 0,0 l/m 0 min 2 min 23 W/m 22,5 km/h (4 Bft) 100,00 %
10.02.2019 16:08 7,6 C 6,1 C 5,6 C 94 % 988,7 hPa 0,0 l/m 0 min 2 min 28 W/m 19,3 km/h (3 Bft) 100,00 %
10.02.2019 16:10 7,5 C 6,1 C 5,6 C 94 % 988,6 hPa 0,0 l/m 0 min 2 min 34 W/m 16,1 km/h (3 Bft) 100,00 %
10.02.2019 16:12 7,5 C 6,1 C 5,6 C 94 % 988,6 hPa 0,0 l/m 0 min 2 min 29 W/m 19,3 km/h (3 Bft) 97,83 %
10.02.2019 16:14 7,5 C 6,1 C 5,6 C 94 % 988,7 hPa 0,0 l/m 0 min 2 min 32 W/m 32,2 km/h (5 Bft) 100,00 %
10.02.2019 16:16 7,5 C 6,1 C 5,6 C 94 % 988,8 hPa 0,0 l/m 0 min 2 min 28 W/m 25,7 km/h (4 Bft) 100,00 %
10.02.2019 16:18 7,4 C 6,1 C 5,6 C 94 % 988,8 hPa 0,0 l/m 0 min 2 min 21 W/m 9,7 km/h (2 Bft) 100,00 %
10.02.2019 16:20 7,4 C 6,1 C 5,6 C 94 % 988,9 hPa 0,0 l/m 0 min 2 min 11 W/m 19,3 km/h (3 Bft) 95,74 %
10.02.2019 16:22 7,4 C 6,1 C 5,6 C 94 % 988,9 hPa 0,0 l/m 0 min 2 min 7 W/m 19,3 km/h (3 Bft) 97,92 %
10.02.2019 16:24 7,4 C 6,1 C 5,6 C 94 % 988,9 hPa 0,0 l/m 0 min 2 min 7 W/m 32,2 km/h (5 Bft) 100,00 %
10.02.2019 16:26 7,4 C 6,1 C 5,6 C 94 % 988,9 hPa 0,0 l/m 0 min 2 min 7 W/m 25,7 km/h (4 Bft) 100,00 %
10.02.2019 16:28 7,4 C 6,1 C 5,6 C 94 % 988,9 hPa 0,0 l/m 0 min 2 min 10 W/m 16,1 km/h (3 Bft) 100,00 %
10.02.2019 16:30 7,3 C 6,1 C 5,6 C 94 % 988,9 hPa 0,2 l/m 0 min 2 min 17 W/m 29,0 km/h (5 Bft) 91,49 %
10.02.2019 16:32 7,3 C 6,1 C 5,6 C 94 % 988,9 hPa 0,0 l/m 0 min 2 min 27 W/m 25,7 km/h (4 Bft) 93,62 %
10.02.2019 16:34 7,3 C 6,1 C 5,6 C 94 % 988,9 hPa 0,0 l/m 0 min 2 min 43 W/m 19,3 km/h (3 Bft) 100,00 %
10.02.2019 16:36 7,3 C 6,1 C 5,6 C 94 % 989,0 hPa 0,0 l/m 0 min 2 min 67 W/m 16,1 km/h (3 Bft) 100,00 %
10.02.2019 16:38 7,3 C 6,1 C 5,6 C 94 % 988,9 hPa 0,0 l/m 2 min 2 min 79 W/m 12,9 km/h (3 Bft) 100,00 %
10.02.2019 16:40 7,3 C 6,1 C 5,6 C 94 % 988,9 hPa 0,0 l/m 0 min 2 min 62 W/m 22,5 km/h (4 Bft) 100,00 %
10.02.2019 16:42 7,3 C 6,1 C 5,6 C 94 % 988,9 hPa 0,0 l/m 0 min 2 min 60 W/m 19,3 km/h (3 Bft) 100,00 %
10.02.2019 16:44 7,3 C 6,1 C 5,6 C 94 % 988,8 hPa 0,0 l/m 0 min 2 min 41 W/m 25,7 km/h (4 Bft) 100,00 %
10.02.2019 16:46 7,2 C 6,1 C 5,6 C 94 % 988,9 hPa 0,0 l/m 0 min 2 min 27 W/m 38,6 km/h (5 Bft) 97,83 %
10.02.2019 16:48 7,2 C 6,1 C 5,6 C 94 % 989,0 hPa 0,0 l/m 0 min 2 min 14 W/m 16,1 km/h (3 Bft) 95,74 %
10.02.2019 16:50 7,2 C 6,1 C 5,6 C 94 % 989,0 hPa 0,0 l/m 0 min 2 min 8 W/m 16,1 km/h (3 Bft) 82,98 %
10.02.2019 16:52 7,2 C 6,1 C 5,6 C 94 % 989,1 hPa 0,0 l/m 0 min 2 min 7 W/m 12,9 km/h (3 Bft) 85,11 %
10.02.2019 16:54 7,2 C 5,6 C 5,6 C 94 % 989,2 hPa 0,0 l/m 0 min 2 min 5 W/m 22,5 km/h (4 Bft) 76,60 %
10.02.2019 16:56 7,1 C 5,6 C 5,0 C 94 % 989,2 hPa 0,0 l/m 0 min 2 min 5 W/m 38,6 km/h (5 Bft) 89,13 %
10.02.2019 16:58 7,1 C 5,6 C 5,0 C 93 % 989,2 hPa 0,0 l/m 0 min 2 min 5 W/m 29,0 km/h (5 Bft) 87,23 %
10.02.2019 17:00 7,1 C 5,6 C 5,0 C 93 % 989,3 hPa 0,2 l/m 0 min 2 min 1 W/m 35,4 km/h (5 Bft) 93,62 %
10.02.2019 17:02 7,0 C 5,6 C 5,0 C 93 % 989,4 hPa 0,0 l/m 0 min 2 min 0 W/m 22,5 km/h (4 Bft) 97,87 %
10.02.2019 17:04 7,0 C 5,6 C 5,0 C 93 % 989,4 hPa 0,0 l/m 0 min 2 min 0 W/m 16,1 km/h (3 Bft) 97,87 %
10.02.2019 17:06 6,9 C 5,6 C 5,0 C 93 % 989,5 hPa 0,0 l/m 0 min 2 min 2 W/m 29,0 km/h (5 Bft) 91,49 %
10.02.2019 17:08 6,9 C 5,6 C 5,0 C 93 % 989,4 hPa 0,0 l/m 0 min 2 min 5 W/m 19,3 km/h (3 Bft) 95,65 %
10.02.2019 17:10 6,9 C 5,6 C 5,0 C 93 % 989,5 hPa 0,0 l/m 0 min 0 min 2 W/m 19,3 km/h (3 Bft) 93,62 %
10.02.2019 17:12 6,9 C 5,6 C 5,0 C 93 % 989,5 hPa 0,0 l/m 0 min 0 min 0 W/m 22,5 km/h (4 Bft) 95,74 %
10.02.2019 17:14 6,8 C 5,6 C 5,0 C 93 % 989,6 hPa 0,0 l/m 0 min 0 min 0 W/m 12,9 km/h (3 Bft) 95,74 %
10.02.2019 17:16 6,8 C 5,6 C 5,0 C 93 % 989,6 hPa 0,0 l/m 0 min 0 min 0 W/m 22,5 km/h (4 Bft) 91,49 %
10.02.2019 17:18 6,8 C 5,6 C 5,0 C 93 % 989,6 hPa 0,0 l/m 0 min 0 min 0 W/m 25,7 km/h (4 Bft) 93,62 %
10.02.2019 17:20 6,7 C 5,6 C 5,0 C 93 % 989,7 hPa 0,0 l/m 0 min 0 min 0 W/m 12,9 km/h (3 Bft) 93,48 %
10.02.2019 17:22 6,7 C 5,6 C 5,0 C 93 % 989,7 hPa 0,0 l/m 0 min 2 min 0 W/m 16,1 km/h (3 Bft) 91,49 %
10.02.2019 17:24 6,7 C 5,0 C 5,0 C 93 % 989,8 hPa 0,2 l/m 0 min 2 min 0 W/m 19,3 km/h (3 Bft) 93,75 %
10.02.2019 17:26 6,6 C 5,0 C 5,0 C 93 % 989,8 hPa 0,0 l/m 0 min 2 min 0 W/m 25,7 km/h (4 Bft) 93,62 %
10.02.2019 17:28 6,6 C 5,0 C 5,0 C 93 % 989,8 hPa 0,0 l/m 0 min 2 min 0 W/m 22,5 km/h (4 Bft) 93,62 %
10.02.2019 17:30 6,6 C 5,0 C 5,0 C 94 % 989,9 hPa 0,0 l/m 0 min 2 min 0 W/m 12,9 km/h (3 Bft) 95,74 %
10.02.2019 17:32 6,6 C 5,0 C 5,0 C 94 % 989,9 hPa 0,0 l/m 0 min 2 min 0 W/m 9,7 km/h (2 Bft) 95,74 %
10.02.2019 17:34 6,5 C 5,0 C 5,0 C 94 % 990,0 hPa 0,0 l/m 0 min 2 min 0 W/m 9,7 km/h (2 Bft) 85,11 %
10.02.2019 17:36 6,5 C 5,0 C 5,0 C 94 % 990,0 hPa 0,0 l/m 0 min 2 min 0 W/m 16,1 km/h (3 Bft) 95,65 %
10.02.2019 17:38 6,5 C 5,0 C 5,0 C 94 % 990,0 hPa 0,2 l/m 0 min 2 min 0 W/m 16,1 km/h (3 Bft) 91,49 %
10.02.2019 17:40 6,5 C 5,0 C 5,0 C 94 % 990,1 hPa 0,0 l/m 0 min 2 min 0 W/m 16,1 km/h (3 Bft) 95,74 %
10.02.2019 17:42 6,4 C 5,0 C 4,4 C 94 % 990,1 hPa 0,0 l/m 0 min 2 min 0 W/m 25,7 km/h (4 Bft) 93,62 %
10.02.2019 17:44 6,4 C 5,0 C 4,4 C 94 % 990,1 hPa 0,0 l/m 0 min 2 min 0 W/m 22,5 km/h (4 Bft) 95,74 %
10.02.2019 17:46 6,4 C 5,0 C 4,4 C 94 % 990,1 hPa 0,2 l/m 0 min 2 min 0 W/m 25,7 km/h (4 Bft) 91,49 %
10.02.2019 17:48 6,3 C 5,0 C 4,4 C 94 % 990,2 hPa 0,0 l/m 0 min 2 min 0 W/m 22,5 km/h (4 Bft) 95,65 %
10.02.2019 17:50 6,3 C 5,0 C 4,4 C 94 % 990,2 hPa 0,0 l/m 0 min 2 min 0 W/m 19,3 km/h (3 Bft) 95,74 %
10.02.2019 17:52 6,2 C 5,0 C 4,4 C 94 % 990,2 hPa 0,0 l/m 0 min 2 min 0 W/m 19,3 km/h (3 Bft) 95,74 %
10.02.2019 17:54 6,2 C 5,0 C 4,4 C 94 % 990,3 hPa 0,0 l/m 0 min 2 min 0 W/m 16,1 km/h (3 Bft) 95,74 %
10.02.2019 17:56 6,2 C 5,0 C 4,4 C 94 % 990,3 hPa 0,0 l/m 0 min 2 min 0 W/m 19,3 km/h (3 Bft) 93,62 %
10.02.2019 17:58 6,1 C 5,0 C 4,4 C 94 % 990,3 hPa 0,0 l/m 0 min 2 min 0 W/m 16,1 km/h (3 Bft) 95,65 %
10.02.2019 18:00 6,1 C 5,0 C 4,4 C 94 % 990,3 hPa 0,0 l/m 0 min 2 min 0 W/m 16,1 km/h (3 Bft) 97,87 %
10.02.2019 18:02 6,1 C 5,0 C 4,4 C 94 % 990,3 hPa 0,0 l/m 0 min 2 min 0 W/m 16,1 km/h (3 Bft) 97,87 %
10.02.2019 18:04 6,1 C 5,0 C 4,4 C 94 % 990,3 hPa 0,0 l/m 0 min 2 min 0 W/m 16,1 km/h (3 Bft) 97,87 %
10.02.2019 18:07 6,1 C 5,0 C 4,4 C 94 % 990,5 hPa 0,0 l/m 0 min 3 min 0 W/m 12,9 km/h (3 Bft) 98,57 %
10.02.2019 18:08 6,1 C 5,0 C 4,4 C 94 % 990,5 hPa 0,0 l/m 0 min 1 min 0 W/m 9,7 km/h (2 Bft) 95,83 %
10.02.2019 18:10 6,1 C 5,0 C 4,4 C 95 % 990,5 hPa 0,0 l/m 0 min 2 min 0 W/m 12,9 km/h (3 Bft) 97,83 %
10.02.2019 18:12 6,0 C 5,0 C 4,4 C 95 % 990,5 hPa 0,0 l/m 0 min 2 min 0 W/m 12,9 km/h (3 Bft) 97,87 %
10.02.2019 18:14 6,1 C 5,0 C 4,4 C 95 % 990,6 hPa 0,0 l/m 0 min 2 min 0 W/m 16,1 km/h (3 Bft) 97,87 %
10.02.2019 18:16 6,1 C 5,0 C 4,4 C 95 % 990,5 hPa 0,0 l/m 0 min 2 min 0 W/m 25,7 km/h (4 Bft) 97,87 %
10.02.2019 18:18 6,1 C 5,0 C 4,4 C 95 % 990,6 hPa 0,0 l/m 0 min 2 min 0 W/m 16,1 km/h (3 Bft) 100,00 %
10.02.2019 18:20 6,1 C 5,0 C 4,4 C 95 % 990,7 hPa 0,2 l/m 0 min 2 min 0 W/m 32,2 km/h (5 Bft) 100,00 %
10.02.2019 18:22 6,1 C 5,0 C 4,4 C 95 % 990,8 hPa 0,0 l/m 0 min 2 min 0 W/m 22,5 km/h (4 Bft) 100,00 %
10.02.2019 18:24 6,1 C 5,0 C 4,4 C 95 % 990,7 hPa 0,0 l/m 0 min 2 min 0 W/m 12,9 km/h (3 Bft) 97,87 %
10.02.2019 18:25 6,1 C 5,0 C 4,4 C 95 % 990,7 hPa 0,0 l/m 0 min 1 min 0 W/m 22,5 km/h (4 Bft) 100,00 %
10.02.2019 18:30 6,1 C 5,0 C 4,4 C 95 % 990,8 hPa 0,0 l/m 0 min 5 min 0 W/m 22,5 km/h (4 Bft) 100,00 %
10.02.2019 18:34 6,1 C 5,0 C 4,4 C 95 % 990,8 hPa 0,0 l/m 0 min 4 min 0 W/m 22,5 km/h (4 Bft) 97,83 %
10.02.2019 18:36 6,1 C 5,0 C 4,4 C 95 % 990,9 hPa 0,0 l/m 0 min 2 min 0 W/m 25,7 km/h (4 Bft) 100,00 %
10.02.2019 18:38 6,1 C 5,0 C 4,4 C 95 % 990,9 hPa 0,0 l/m 0 min 2 min 0 W/m 32,2 km/h (5 Bft) 100,00 %
10.02.2019 18:40 6,1 C 5,0 C 4,4 C 95 % 990,9 hPa 0,0 l/m 0 min 2 min 0 W/m 29,0 km/h (5 Bft) 100,00 %
10.02.2019 18:42 6,0 C 5,0 C 4,4 C 95 % 991,0 hPa 0,2 l/m 0 min 2 min 0 W/m 45,1 km/h (6 Bft) 100,00 %
10.02.2019 18:44 6,0 C 4,4 C 4,4 C 95 % 991,2 hPa 0,0 l/m 0 min 2 min 0 W/m 29,0 km/h (5 Bft) 100,00 %
10.02.2019 18:46 6,0 C 4,4 C 4,4 C 95 % 991,1 hPa 0,0 l/m 0 min 2 min 0 W/m 22,5 km/h (4 Bft) 97,87 %
10.02.2019 18:48 6,0 C 4,4 C 4,4 C 95 % 991,2 hPa 0,0 l/m 0 min 2 min 0 W/m 25,7 km/h (4 Bft) 100,00 %
10.02.2019 18:50 5,9 C 4,4 C 4,4 C 95 % 991,2 hPa 0,0 l/m 0 min 2 min 0 W/m 25,7 km/h (4 Bft) 100,00 %
10.02.2019 18:52 5,9 C 4,4 C 3,9 C 95 % 991,2 hPa 0,2 l/m 0 min 2 min 0 W/m 38,6 km/h (5 Bft) 100,00 %
10.02.2019 18:54 5,9 C 4,4 C 3,9 C 95 % 991,3 hPa 0,0 l/m 0 min 2 min 0 W/m 38,6 km/h (5 Bft) 100,00 %
10.02.2019 18:56 5,9 C 4,4 C 3,9 C 95 % 991,4 hPa 0,0 l/m 0 min 2 min 0 W/m 19,3 km/h (3 Bft) 100,00 %
10.02.2019 18:58 5,8 C 4,4 C 3,9 C 95 % 991,4 hPa 0,0 l/m 0 min 2 min 0 W/m 19,3 km/h (3 Bft) 100,00 %
10.02.2019 19:00 5,8 C 4,4 C 3,9 C 95 % 991,5 hPa 0,0 l/m 0 min 2 min 0 W/m 41,8 km/h (6 Bft) 100,00 %
10.02.2019 19:02 5,8 C 4,4 C 3,9 C 95 % 991,5 hPa 0,2 l/m 0 min 2 min 0 W/m 41,8 km/h (6 Bft) 97,87 %
10.02.2019 19:04 5,8 C 4,4 C 3,9 C 95 % 991,6 hPa 0,0 l/m 0 min 2 min 0 W/m 25,7 km/h (4 Bft) 97,83 %
10.02.2019 19:06 5,7 C 4,4 C 3,9 C 95 % 991,7 hPa 0,0 l/m 0 min 2 min 0 W/m 32,2 km/h (5 Bft) 100,00 %
10.02.2019 19:08 5,7 C 4,4 C 3,9 C 95 % 991,8 hPa 0,0 l/m 0 min 2 min 0 W/m 19,3 km/h (3 Bft) 100,00 %
10.02.2019 19:10 5,7 C 4,4 C 3,9 C 95 % 991,9 hPa 0,0 l/m 0 min 2 min 0 W/m 19,3 km/h (3 Bft) 100,00 %
10.02.2019 19:12 5,7 C 4,4 C 3,9 C 95 % 991,9 hPa 0,0 l/m 0 min 2 min 0 W/m 22,5 km/h (4 Bft) 100,00 %
10.02.2019 19:14 5,7 C 4,4 C 3,9 C 95 % 991,9 hPa 0,0 l/m 0 min 2 min 0 W/m 32,2 km/h (5 Bft) 100,00 %
10.02.2019 19:16 5,7 C 4,4 C 3,9 C 95 % 992,0 hPa 0,0 l/m 0 min 2 min 0 W/m 22,5 km/h (4 Bft) 100,00 %
10.02.2019 19:18 5,6 C 4,4 C 3,9 C 95 % 992,0 hPa 0,0 l/m 0 min 2 min 0 W/m 19,3 km/h (3 Bft) 100,00 %
10.02.2019 19:20 5,6 C 4,4 C 3,9 C 95 % 992,0 hPa 0,0 l/m 0 min 2 min 0 W/m 19,3 km/h (3 Bft) 100,00 %
10.02.2019 19:22 5,6 C 4,4 C 3,9 C 95 % 992,1 hPa 0,0 l/m 0 min 2 min 0 W/m 19,3 km/h (3 Bft) 100,00 %
10.02.2019 19:24 5,6 C 4,4 C 3,9 C 95 % 992,2 hPa 0,0 l/m 0 min 2 min 0 W/m 22,5 km/h (4 Bft) 95,74 %
10.02.2019 19:26 5,6 C 4,4 C 3,9 C 94 % 992,1 hPa 0,0 l/m 0 min 2 min 0 W/m 22,5 km/h (4 Bft) 95,65 %
10.02.2019 19:28 5,6 C 4,4 C 3,9 C 94 % 992,2 hPa 0,0 l/m 0 min 2 min 0 W/m 19,3 km/h (3 Bft) 95,74 %
10.02.2019 19:30 5,6 C 4,4 C 3,9 C 94 % 992,3 hPa 0,2 l/m 0 min 2 min 0 W/m 12,9 km/h (3 Bft) 97,87 %
10.02.2019 19:32 5,6 C 4,4 C 3,9 C 94 % 992,3 hPa 0,0 l/m 0 min 2 min 0 W/m 19,3 km/h (3 Bft) 97,87 %
10.02.2019 19:34 5,6 C 4,4 C 3,9 C 94 % 992,4 hPa 0,0 l/m 0 min 2 min 0 W/m 22,5 km/h (4 Bft) 93,62 %
10.02.2019 19:36 5,5 C 4,4 C 3,9 C 94 % 992,5 hPa 0,0 l/m 0 min 2 min 0 W/m 19,3 km/h (3 Bft) 95,74 %
10.02.2019 19:38 5,5 C 4,4 C 3,9 C 95 % 992,4 hPa 0,0 l/m 0 min 2 min 0 W/m 16,1 km/h (3 Bft) 97,87 %
10.02.2019 19:40 5,5 C 4,4 C 3,9 C 95 % 992,5 hPa 0,0 l/m 0 min 2 min 0 W/m 22,5 km/h (4 Bft) 97,87 %
10.02.2019 19:42 5,4 C 4,4 C 3,9 C 95 % 992,5 hPa 0,0 l/m 0 min 2 min 0 W/m 19,3 km/h (3 Bft) 93,62 %
10.02.2019 19:44 5,4 C 4,4 C 3,9 C 95 % 992,5 hPa 0,0 l/m 0 min 2 min 0 W/m 19,3 km/h (3 Bft) 95,74 %
10.02.2019 19:46 5,4 C 4,4 C 3,9 C 95 % 992,5 hPa 0,2 l/m 0 min 2 min 0 W/m 19,3 km/h (3 Bft) 97,87 %
10.02.2019 19:48 5,4 C 4,4 C 3,9 C 95 % 992,7 hPa 0,0 l/m 0 min 2 min 0 W/m 35,4 km/h (5 Bft) 97,87 %
10.02.2019 19:50 5,4 C 4,4 C 3,9 C 95 % 992,7 hPa 0,0 l/m 0 min 2 min 0 W/m 22,5 km/h (4 Bft) 97,87 %
10.02.2019 19:52 5,4 C 4,4 C 3,9 C 95 % 992,8 hPa 0,0 l/m 0 min 2 min 0 W/m 19,3 km/h (3 Bft) 97,83 %
10.02.2019 19:54 5,3 C 4,4 C 3,9 C 95 % 992,7 hPa 0,0 l/m 0 min 2 min 0 W/m 22,5 km/h (4 Bft) 95,74 %
10.02.2019 19:56 5,3 C 4,4 C 3,9 C 95 % 992,9 hPa 0,0 l/m 0 min 2 min 0 W/m 16,1 km/h (3 Bft) 95,92 %
10.02.2019 19:58 5,3 C 3,9 C 3,9 C 95 % 992,9 hPa 0,0 l/m 0 min 2 min 0 W/m 19,3 km/h (3 Bft) 95,74 %
10.02.2019 20:00 5,3 C 3,9 C 3,9 C 95 % 993,0 hPa 0,2 l/m 0 min 2 min 0 W/m 32,2 km/h (5 Bft) 95,74 %
10.02.2019 20:02 5,3 C 3,9 C 3,9 C 95 % 993,0 hPa 0,0 l/m 0 min 2 min 0 W/m 32,2 km/h (5 Bft) 93,62 %
10.02.2019 20:04 5,2 C 3,9 C 3,9 C 95 % 993,1 hPa 0,0 l/m 0 min 2 min 0 W/m 29,0 km/h (5 Bft) 95,65 %
10.02.2019 20:06 5,2 C 3,9 C 3,9 C 95 % 993,2 hPa 0,0 l/m 0 min 2 min 0 W/m 32,2 km/h (5 Bft) 95,74 %
10.02.2019 20:08 5,2 C 3,9 C 3,9 C 95 % 993,2 hPa 0,0 l/m 0 min 2 min 0 W/m 29,0 km/h (5 Bft) 100,00 %
10.02.2019 20:10 5,2 C 3,9 C 3,9 C 95 % 993,3 hPa 0,2 l/m 0 min 2 min 0 W/m 19,3 km/h (3 Bft) 97,87 %
10.02.2019 20:12 5,1 C 3,9 C 3,3 C 95 % 993,4 hPa 0,0 l/m 0 min 2 min 0 W/m 38,6 km/h (5 Bft) 97,87 %
10.02.2019 20:14 5,1 C 3,9 C 3,3 C 95 % 993,3 hPa 0,0 l/m 0 min 2 min 0 W/m 35,4 km/h (5 Bft) 97,87 %
10.02.2019 20:16 5,0 C 3,9 C 3,3 C 95 % 993,4 hPa 0,0 l/m 0 min 2 min 0 W/m 35,4 km/h (5 Bft) 97,83 %
10.02.2019 20:18 4,9 C 3,9 C 3,3 C 95 % 993,6 hPa 0,2 l/m 0 min 2 min 0 W/m 41,8 km/h (6 Bft) 93,62 %
10.02.2019 20:20 4,9 C 3,9 C 3,3 C 95 % 993,6 hPa 0,0 l/m 0 min 2 min 0 W/m 29,0 km/h (5 Bft) 97,87 %
10.02.2019 20:22 4,8 C 3,9 C 3,3 C 95 % 993,8 hPa 0,0 l/m 0 min 2 min 0 W/m 22,5 km/h (4 Bft) 97,87 %
10.02.2019 20:24 4,8 C 3,9 C 3,3 C 95 % 993,9 hPa 0,0 l/m 0 min 2 min 0 W/m 22,5 km/h (4 Bft) 97,87 %
10.02.2019 20:26 4,8 C 3,9 C 3,3 C 95 % 993,9 hPa 0,2 l/m 0 min 2 min 0 W/m 29,0 km/h (5 Bft) 95,65 %
10.02.2019 20:28 4,8 C 3,9 C 3,3 C 95 % 994,0 hPa 0,0 l/m 0 min 2 min 0 W/m 32,2 km/h (5 Bft) 97,87 %
10.02.2019 20:30 4,7 C 3,3 C 3,3 C 95 % 994,0 hPa 0,0 l/m 0 min 2 min 0 W/m 25,7 km/h (4 Bft) 100,00 %
10.02.2019 20:32 4,7 C 3,3 C 3,3 C 95 % 994,2 hPa 0,0 l/m 0 min 2 min 0 W/m 22,5 km/h (4 Bft) 95,74 %
10.02.2019 20:34 4,6 C 3,3 C 3,3 C 95 % 994,2 hPa 0,0 l/m 0 min 2 min 0 W/m 22,5 km/h (4 Bft) 95,74 %
10.02.2019 20:36 4,6 C 3,3 C 3,3 C 95 % 994,2 hPa 0,0 l/m 0 min 2 min 0 W/m 19,3 km/h (3 Bft) 91,49 %
10.02.2019 20:38 4,6 C 3,3 C 3,3 C 95 % 994,3 hPa 0,0 l/m 0 min 2 min 0 W/m 32,2 km/h (5 Bft) 95,65 %
10.02.2019 20:40 4,5 C 3,3 C 3,3 C 95 % 994,4 hPa 0,2 l/m 0 min 2 min 0 W/m 25,7 km/h (4 Bft) 93,62 %
10.02.2019 20:42 4,5 C 3,3 C 3,3 C 95 % 994,4 hPa 0,0 l/m 0 min 2 min 0 W/m 19,3 km/h (3 Bft) 95,74 %
10.02.2019 20:44 4,5 C 3,3 C 3,3 C 95 % 994,5 hPa 0,0 l/m 0 min 2 min 0 W/m 22,5 km/h (4 Bft) 95,74 %
10.02.2019 20:46 4,4 C 3,3 C 3,3 C 96 % 994,6 hPa 0,0 l/m 0 min 2 min 0 W/m 25,7 km/h (4 Bft) 95,74 %
10.02.2019 20:48 4,4 C 3,3 C 2,8 C 95 % 994,5 hPa 0,0 l/m 0 min 2 min 0 W/m 16,1 km/h (3 Bft) 95,74 %
10.02.2019 20:50 4,4 C 3,3 C 3,3 C 95 % 994,6 hPa 0,2 l/m 0 min 2 min 0 W/m 32,2 km/h (5 Bft) 95,74 %
10.02.2019 20:52 4,4 C 3,3 C 2,8 C 95 % 994,6 hPa 0,0 l/m 0 min 2 min 0 W/m 32,2 km/h (5 Bft) 95,65 %
10.02.2019 20:54 4,3 C 3,3 C 2,8 C 95 % 994,7 hPa 0,0 l/m 0 min 2 min 0 W/m 35,4 km/h (5 Bft) 91,49 %
10.02.2019 20:56 4,3 C 3,3 C 2,8 C 96 % 994,8 hPa 0,0 l/m 0 min 2 min 0 W/m 16,1 km/h (3 Bft) 95,74 %
10.02.2019 20:58 4,3 C 3,3 C 2,8 C 96 % 994,8 hPa 0,0 l/m 0 min 2 min 0 W/m 12,9 km/h (3 Bft) 95,74 %
10.02.2019 21:00 4,3 C 3,3 C 2,8 C 96 % 994,8 hPa 0,0 l/m 0 min 2 min 0 W/m 22,5 km/h (4 Bft) 95,74 %
10.02.2019 21:02 4,3 C 3,3 C 2,8 C 96 % 994,9 hPa 0,2 l/m 0 min 2 min 0 W/m 22,5 km/h (4 Bft) 93,48 %
10.02.2019 21:04 4,3 C 3,3 C 2,8 C 96 % 995,0 hPa 0,0 l/m 0 min 2 min 0 W/m 19,3 km/h (3 Bft) 97,87 %
10.02.2019 21:06 4,3 C 3,3 C 2,8 C 96 % 995,2 hPa 0,0 l/m 0 min 2 min 0 W/m 29,0 km/h (5 Bft) 95,74 %
10.02.2019 21:08 4,3 C 3,3 C 2,8 C 96 % 995,2 hPa 0,0 l/m 0 min 2 min 0 W/m 19,3 km/h (3 Bft) 97,87 %
10.02.2019 21:10 4,3 C 3,3 C 2,8 C 96 % 995,3 hPa 0,0 l/m 0 min 2 min 0 W/m 22,5 km/h (4 Bft) 95,45 %
10.02.2019 21:12 4,2 C 3,3 C 2,8 C 96 % 995,2 hPa 0,2 l/m 0 min 2 min 0 W/m 29,0 km/h (5 Bft) 93,48 %
10.02.2019 21:14 4,2 C 3,3 C 2,8 C 96 % 995,4 hPa 0,0 l/m 0 min 2 min 0 W/m 29,0 km/h (5 Bft) 97,87 %
10.02.2019 21:16 4,2 C 3,3 C 2,8 C 96 % 995,6 hPa 0,0 l/m 0 min 2 min 0 W/m 32,2 km/h (5 Bft) 97,87 %
10.02.2019 21:18 4,1 C 2,8 C 2,8 C 96 % 995,7 hPa 0,0 l/m 0 min 2 min 0 W/m 35,4 km/h (5 Bft) 95,74 %
10.02.2019 21:20 4,1 C 2,8 C 2,8 C 96 % 995,6 hPa 0,0 l/m 0 min 2 min 0 W/m 16,1 km/h (3 Bft) 97,87 %
10.02.2019 21:22 4,1 C 3,3 C 2,8 C 96 % 995,6 hPa 0,0 l/m 0 min 2 min 0 W/m 22,5 km/h (4 Bft) 97,83 %
10.02.2019 21:24 4,0 C 2,8 C 2,8 C 96 % 995,7 hPa 0,2 l/m 0 min 2 min 0 W/m 32,2 km/h (5 Bft) 97,87 %
10.02.2019 21:26 4,0 C 2,8 C 2,8 C 96 % 995,8 hPa 0,0 l/m 0 min 2 min 0 W/m 29,0 km/h (5 Bft) 95,74 %
10.02.2019 21:28 3,9 C 2,8 C 2,8 C 96 % 995,8 hPa 0,0 l/m 0 min 2 min 0 W/m 29,0 km/h (5 Bft) 95,74 %
10.02.2019 21:30 3,9 C 2,8 C 2,8 C 96 % 996,0 hPa 0,0 l/m 0 min 2 min 0 W/m 29,0 km/h (5 Bft) 100,00 %
10.02.2019 21:32 3,8 C 2,8 C 2,8 C 96 % 996,0 hPa 0,0 l/m 0 min 2 min 0 W/m 25,7 km/h (4 Bft) 100,00 %
10.02.2019 21:34 3,8 C 2,8 C 2,2 C 96 % 996,1 hPa 0,0 l/m 0 min 2 min 0 W/m 32,2 km/h (5 Bft) 100,00 %
10.02.2019 21:36 3,8 C 2,8 C 2,2 C 96 % 996,2 hPa 0,0 l/m 0 min 2 min 0 W/m 29,0 km/h (5 Bft) 100,00 %
10.02.2019 21:38 3,7 C 2,8 C 2,2 C 96 % 996,1 hPa 0,2 l/m 0 min 2 min 0 W/m 29,0 km/h (5 Bft) 97,92 %
10.02.2019 21:40 3,7 C 2,8 C 2,2 C 96 % 996,3 hPa 0,0 l/m 0 min 2 min 0 W/m 25,7 km/h (4 Bft) 97,96 %
10.02.2019 21:42 3,7 C 2,8 C 2,2 C 96 % 996,4 hPa 0,0 l/m 0 min 2 min 0 W/m 16,1 km/h (3 Bft) 100,00 %
10.02.2019 21:44 3,6 C 2,8 C 2,2 C 96 % 996,5 hPa 0,0 l/m 0 min 2 min 0 W/m 16,1 km/h (3 Bft) 100,00 %
10.02.2019 21:46 3,6 C 2,8 C 2,2 C 96 % 996,5 hPa 0,0 l/m 0 min 2 min 0 W/m 22,5 km/h (4 Bft) 100,00 %
10.02.2019 21:48 3,6 C 2,8 C 2,2 C 96 % 996,6 hPa 0,2 l/m 0 min 2 min 0 W/m 29,0 km/h (5 Bft) 95,74 %
10.02.2019 21:50 3,6 C 2,8 C 2,2 C 96 % 996,7 hPa 0,0 l/m 0 min 2 min 0 W/m 41,8 km/h (6 Bft) 100,00 %
10.02.2019 21:52 3,6 C 2,8 C 2,2 C 96 % 996,8 hPa 0,0 l/m 0 min 2 min 0 W/m 25,7 km/h (4 Bft) 100,00 %
10.02.2019 21:54 3,5 C 2,2 C 2,2 C 96 % 996,8 hPa 0,2 l/m 0 min 2 min 0 W/m 45,1 km/h (6 Bft) 97,96 %
10.02.2019 21:56 3,4 C 2,2 C 2,2 C 96 % 996,8 hPa 0,0 l/m 0 min 2 min 0 W/m 41,8 km/h (6 Bft) 100,00 %
10.02.2019 21:58 3,4 C 2,2 C 2,2 C 96 % 997,1 hPa 0,0 l/m 0 min 2 min 0 W/m 38,6 km/h (5 Bft) 97,87 %
10.02.2019 22:00 3,4 C 2,2 C 2,2 C 96 % 997,1 hPa 0,0 l/m 0 min 2 min 0 W/m 29,0 km/h (5 Bft) 95,74 %
10.02.2019 22:02 3,3 C 2,2 C 2,2 C 96 % 997,3 hPa 0,0 l/m 0 min 2 min 0 W/m 25,7 km/h (4 Bft) 97,62 %
10.02.2019 22:04 3,3 C 2,2 C 2,2 C 96 % 997,3 hPa 0,0 l/m 0 min 2 min 0 W/m 25,7 km/h (4 Bft) 97,87 %
10.02.2019 22:06 3,3 C 2,2 C 2,2 C 96 % 997,4 hPa 0,0 l/m 0 min 2 min 0 W/m 22,5 km/h (4 Bft) 96,00 %
10.02.2019 22:08 3,3 C 2,2 C 2,2 C 96 % 997,4 hPa 0,2 l/m 0 min 2 min 0 W/m 22,5 km/h (4 Bft) 97,96 %
10.02.2019 22:10 3,3 C 2,2 C 2,2 C 96 % 997,5 hPa 0,0 l/m 0 min 2 min 0 W/m 35,4 km/h (5 Bft) 97,92 %
10.02.2019 22:12 3,3 C 2,2 C 2,2 C 96 % 997,6 hPa 0,0 l/m 0 min 2 min 0 W/m 22,5 km/h (4 Bft) 97,96 %
10.02.2019 22:14 3,3 C 2,2 C 2,2 C 96 % 997,8 hPa 0,2 l/m 0 min 2 min 0 W/m 29,0 km/h (5 Bft) 97,87 %
10.02.2019 22:16 3,3 C 2,2 C 2,2 C 96 % 997,9 hPa 0,0 l/m 0 min 2 min 0 W/m 45,1 km/h (6 Bft) 95,74 %
10.02.2019 22:18 3,2 C 2,2 C 1,7 C 96 % 997,9 hPa 0,0 l/m 0 min 2 min 0 W/m 25,7 km/h (4 Bft) 97,56 %
10.02.2019 22:20 3,2 C 2,2 C 1,7 C 96 % 997,9 hPa 0,0 l/m 0 min 2 min 0 W/m 35,4 km/h (5 Bft) 97,96 %
10.02.2019 22:22 3,2 C 2,2 C 1,7 C 96 % 998,1 hPa 0,2 l/m 0 min 2 min 0 W/m 25,7 km/h (4 Bft) 97,96 %
10.02.2019 22:24 3,1 C 2,2 C 1,7 C 96 % 998,1 hPa 0,0 l/m 0 min 2 min 0 W/m 29,0 km/h (5 Bft) 97,83 %
10.02.2019 22:26 3,1 C 2,2 C 1,7 C 96 % 998,4 hPa 0,0 l/m 0 min 2 min 0 W/m 41,8 km/h (6 Bft) 97,96 %
10.02.2019 22:28 3,1 C 2,2 C 1,7 C 96 % 998,5 hPa 0,2 l/m 0 min 2 min 0 W/m 22,5 km/h (4 Bft) 97,87 %
10.02.2019 22:30 3,0 C 2,2 C 1,7 C 96 % 998,6 hPa 0,0 l/m 0 min 2 min 0 W/m 25,7 km/h (4 Bft) 97,83 %
10.02.2019 22:32 3,0 C 2,2 C 1,7 C 96 % 998,5 hPa 0,0 l/m 0 min 2 min 0 W/m 32,2 km/h (5 Bft) 97,67 %
10.02.2019 22:34 2,9 C 2,2 C 1,7 C 96 % 998,7 hPa 0,2 l/m 0 min 2 min 0 W/m 25,7 km/h (4 Bft) 93,75 %
10.02.2019 22:36 2,9 C 2,2 C 1,7 C 96 % 998,7 hPa 0,0 l/m 0 min 2 min 0 W/m 22,5 km/h (4 Bft) 97,87 %
10.02.2019 22:38 2,9 C 2,2 C 1,7 C 96 % 998,8 hPa 0,0 l/m 0 min 2 min 0 W/m 25,7 km/h (4 Bft) 95,92 %
10.02.2019 22:40 2,9 C 2,2 C 1,7 C 96 % 998,9 hPa 0,2 l/m 0 min 2 min 0 W/m 29,0 km/h (5 Bft) 100,00 %
10.02.2019 22:42 2,9 C 2,2 C 1,7 C 96 % 999,0 hPa 0,0 l/m 0 min 2 min 0 W/m 29,0 km/h (5 Bft) 97,96 %
10.02.2019 22:44 2,9 C 2,2 C 1,7 C 96 % 999,1 hPa 0,0 l/m 0 min 2 min 0 W/m 29,0 km/h (5 Bft) 100,00 %
10.02.2019 22:46 2,9 C 2,2 C 1,7 C 96 % 999,0 hPa 0,0 l/m 0 min 2 min 0 W/m 29,0 km/h (5 Bft) 100,00 %
10.02.2019 22:48 2,9 C 2,2 C 1,7 C 96 % 999,1 hPa 0,2 l/m 0 min 2 min 0 W/m 29,0 km/h (5 Bft) 100,00 %
10.02.2019 22:50 2,8 C 2,2 C 1,7 C 96 % 999,2 hPa 0,0 l/m 0 min 2 min 0 W/m 32,2 km/h (5 Bft) 100,00 %
10.02.2019 22:52 2,8 C 2,2 C 1,7 C 96 % 999,5 hPa 0,0 l/m 0 min 2 min 0 W/m 25,7 km/h (4 Bft) 97,87 %
10.02.2019 22:54 2,8 C 2,2 C 1,7 C 96 % 999,4 hPa 0,2 l/m 0 min 2 min 0 W/m 35,4 km/h (5 Bft) 100,00 %
10.02.2019 22:56 2,8 C 2,2 C 1,7 C 97 % 999,4 hPa 0,0 l/m 0 min 2 min 0 W/m 38,6 km/h (5 Bft) 97,96 %
10.02.2019 22:58 2,8 C 2,2 C 1,7 C 97 % 999,4 hPa 0,2 l/m 0 min 2 min 0 W/m 25,7 km/h (4 Bft) 98,00 %
10.02.2019 23:00 2,8 C 2,2 C 1,7 C 97 % 999,5 hPa 0,0 l/m 0 min 2 min 0 W/m 29,0 km/h (5 Bft) 97,83 %
10.02.2019 23:02 2,8 C 2,2 C 1,7 C 97 % 999,5 hPa 0,0 l/m 0 min 2 min 0 W/m 32,2 km/h (5 Bft) 100,00 %
10.02.2019 23:04 2,8 C 2,2 C 1,7 C 97 % 999,6 hPa 0,2 l/m 0 min 2 min 0 W/m 22,5 km/h (4 Bft) 97,83 %
10.02.2019 23:06 2,9 C 2,2 C 1,7 C 97 % 999,8 hPa 0,0 l/m 0 min 2 min 0 W/m 16,1 km/h (3 Bft) 100,00 %
10.02.2019 23:08 2,9 C 2,2 C 1,7 C 97 % 999,9 hPa 0,0 l/m 0 min 2 min 0 W/m 29,0 km/h (5 Bft) 97,62 %
10.02.2019 23:10 2,9 C 2,2 C 1,7 C 97 % 999,9 hPa 0,2 l/m 0 min 2 min 0 W/m 22,5 km/h (4 Bft) 98,00 %
10.02.2019 23:12 2,9 C 2,2 C 1,7 C 97 % 999,9 hPa 0,0 l/m 0 min 2 min 0 W/m 16,1 km/h (3 Bft) 97,87 %
10.02.2019 23:14 2,9 C 2,2 C 1,7 C 97 % 999,9 hPa 0,0 l/m 0 min 2 min 0 W/m 25,7 km/h (4 Bft) 100,00 %
10.02.2019 23:16 2,9 C 2,2 C 1,7 C 97 % 1000,0 hPa 0,0 l/m 0 min 2 min 0 W/m 19,3 km/h (3 Bft) 97,56 %
10.02.2019 23:18 3,0 C 2,2 C 2,2 C 97 % 1000,1 hPa 0,2 l/m 0 min 2 min 0 W/m 29,0 km/h (5 Bft) 97,96 %
10.02.2019 23:20 3,0 C 2,2 C 2,2 C 97 % 1000,0 hPa 0,0 l/m 0 min 2 min 0 W/m 22,5 km/h (4 Bft) 93,88 %
10.02.2019 23:22 3,1 C 2,2 C 2,2 C 97 % 1000,2 hPa 0,0 l/m 0 min 2 min 0 W/m 12,9 km/h (3 Bft) 97,92 %
10.02.2019 23:24 3,1 C 2,2 C 2,2 C 97 % 1000,4 hPa 0,0 l/m 0 min 2 min 0 W/m 25,7 km/h (4 Bft) 97,87 %
10.02.2019 23:26 3,1 C 2,2 C 2,2 C 97 % 1000,6 hPa 0,0 l/m 0 min 2 min 0 W/m 32,2 km/h (5 Bft) 97,87 %
10.02.2019 23:28 3,1 C 2,2 C 2,2 C 97 % 1000,4 hPa 0,0 l/m 0 min 2 min 0 W/m 29,0 km/h (5 Bft) 97,56 %
10.02.2019 23:30 3,1 C 2,2 C 2,2 C 97 % 1000,6 hPa 0,2 l/m 0 min 2 min 0 W/m 22,5 km/h (4 Bft) 97,96 %
10.02.2019 23:32 3,1 C 2,2 C 2,2 C 97 % 1000,7 hPa 0,0 l/m 0 min 2 min 0 W/m 32,2 km/h (5 Bft) 98,00 %
10.02.2019 23:34 3,1 C 2,2 C 2,2 C 97 % 1000,7 hPa 0,0 l/m 0 min 2 min 0 W/m 22,5 km/h (4 Bft) 95,74 %
10.02.2019 23:36 3,2 C 2,2 C 2,2 C 97 % 1000,9 hPa 0,2 l/m 0 min 2 min 0 W/m 32,2 km/h (5 Bft) 97,87 %
10.02.2019 23:38 3,2 C 2,2 C 2,2 C 97 % 1000,8 hPa 0,0 l/m 0 min 2 min 0 W/m 32,2 km/h (5 Bft) 97,87 %
10.02.2019 23:40 3,2 C 2,2 C 2,2 C 97 % 1000,9 hPa 0,0 l/m 0 min 2 min 0 W/m 25,7 km/h (4 Bft) 95,12 %
10.02.2019 23:42 3,2 C 2,8 C 2,2 C 97 % 1001,0 hPa 0,0 l/m 0 min 2 min 0 W/m 22,5 km/h (4 Bft) 97,87 %
10.02.2019 23:44 3,2 C 2,8 C 2,2 C 97 % 1001,1 hPa 0,2 l/m 0 min 2 min 0 W/m 25,7 km/h (4 Bft) 97,96 %
10.02.2019 23:46 3,2 C 2,8 C 2,2 C 97 % 1001,0 hPa 0,0 l/m 0 min 2 min 0 W/m 29,0 km/h (5 Bft) 95,83 %
10.02.2019 23:48 3,2 C 2,8 C 2,2 C 97 % 1001,2 hPa 0,0 l/m 0 min 2 min 0 W/m 25,7 km/h (4 Bft) 97,96 %
10.02.2019 23:50 3,2 C 2,8 C 2,2 C 97 % 1001,3 hPa 0,0 l/m 0 min 2 min 0 W/m 22,5 km/h (4 Bft) 95,74 %
10.02.2019 23:52 3,2 C 2,8 C 2,2 C 97 % 1001,2 hPa 0,2 l/m 0 min 2 min 0 W/m 16,1 km/h (3 Bft) 95,65 %
10.02.2019 23:54 3,2 C 2,8 C 2,2 C 97 % 1001,3 hPa 0,0 l/m 0 min 2 min 0 W/m 19,3 km/h (3 Bft) 97,87 %
10.02.2019 23:56 3,3 C 2,8 C 2,2 C 97 % 1001,5 hPa 0,0 l/m 0 min 2 min 0 W/m 16,1 km/h (3 Bft) 95,24 %
10.02.2019 23:58 3,3 C 2,8 C 2,2 C 97 % 1001,6 hPa 0,0 l/m 0 min 2 min 0 W/m 29,0 km/h (5 Bft) 95,92 %
_ Min-Zeit 22:50 21:54 22:18 00:00 11:32 - - - - 02:32 16:54
Minimum _ 2,8 C 2,2 C 1,7 C 82 % 988,0 hPa - - - - 3,2 km/h (1 Bft) 76,60 %
_ Max-Zeit 10:16 09:38 09:20 07:48 00:00 11:20 14:00 04:05 14:10 09:40 00:08
Maximum _ 10,1 C 8,9 C 7,8 C 98 % 1004,9 hPa 0,4 l/m 2 min 5 min 243 W/m 57,9 km/h
S-SO (7 Bft)
100,00 %
Durchschnitt _ 7,1 C 6,0 C 5,5 C 93 % 993,6 hPa #25,2 l/m #14 min. #19:38 h 52 W/m 23,6 km/h (4 Bft) 97,28 %
© 2019 W. Hausmann